Bel Air, Maryland - USA


Today's Data File


5/3/26
Time         Wind Dir   Wind Spd  Wind Gust     Hum In   Humidity    Temp In       Temp  Raw Barom Wind Chill  Press Alt Cloud Base   Dens Alt Temp Out R  DailyRain   24HrRain   RainRate
                    �        mph        mph          %          %         �F         �F         in         �F         ft         ft         ft      �F/hr         in         in      in/hr
12:00am            48          0          0         39         70       74.7       45.6      29.35       45.6        530       2301       -219      -2.40       0.00       0.00      0.000
12:01am            48          1          1         39         71       74.7       45.6      29.35       45.6        530       2212       -219      -2.35       0.00       0.00      0.000
12:02am            48          1          1         39         71       74.7       45.6      29.35       45.6        531       2212       -218      -2.33       0.00       0.00      0.000
12:03am            48          0          2         39         71       74.7       45.5      29.35       45.5        531       2211       -225      -2.38       0.00       0.00      0.000
12:04am            48          0          2         38         71       74.7       45.5      29.35       45.5        531       2211       -225      -2.34       0.00       0.00      0.000
12:05am            31          1          3         39         71       74.7       45.4      29.35       45.4        531       2210       -232      -2.40       0.00       0.00      0.000
12:06am            31          0          2         39         71       74.7       45.4      29.35       45.4        531       2210       -232      -2.37       0.00       0.00      0.000
12:07am            31          0          2         38         71       74.7       45.4      29.35       45.4        531       2210       -232      -2.33       0.00       0.00      0.000
12:08am            31          0          2         38         71       74.7       45.4      29.35       45.4        531       2210       -232      -2.29       0.00       0.00      0.000
12:09am            31          1          2         38         71       74.7       45.3      29.35       45.3        531       2209       -239      -2.35       0.00       0.00      0.000
12:10am            31          0          2         38         71       74.7       45.3      29.35       45.3        532       2209       -237      -2.31       0.00       0.00      0.000
12:11am            31          0          1         39         71       74.7       45.3      29.35       45.3        532       2209       -237      -2.27       0.00       0.00      0.000
12:12am            31          0          1         39         72       74.7       45.3      29.35       45.3        532       2120       -237      -2.23       0.00       0.00      0.000
12:13am            31          0          1         38         72       74.7       45.2      29.35       45.2        532       2119       -244      -2.30       0.00       0.00      0.000
12:14am            31          0          1         38         72       74.7       45.2      29.35       45.2        532       2119       -244      -2.26       0.00       0.00      0.000
12:15am            31          0          1         38         72       74.7       45.2      29.35       45.2        533       2119       -243      -2.22       0.00       0.00      0.000
12:16am            31          0          1         38         72       74.7       45.2      29.35       45.2        534       2119       -242      -2.19       0.00       0.00      0.000
12:17am            30          1          2         38         72       74.7       45.1      29.35       45.1        534       2118       -249      -2.25       0.00       0.00      0.000
12:18am            30          0          2         38         72       74.7       45.1      29.35       45.1        535       2118       -248      -2.21       0.00       0.00      0.000
12:19am            30          2          3         38         72       74.7       45.1      29.35       45.1        536       2118       -246      -2.17       0.00       0.00      0.000
12:20am            30          1          3         38         71       74.7       45.0      29.34       45.0        537       2206       -251      -2.24       0.00       0.00      0.000
12:21am            30          1          1         39         71       74.7       45.0      29.34       45.0        538       2206       -250      -2.20       0.00       0.00      0.000
12:22am            30          0          1         38         71       74.7       45.1      29.34       45.1        538       2207       -243      -2.07       0.00       0.00      0.000
12:23am           345          2          4         38         71       74.7       45.0      29.34       45.0        541       2206       -246      -2.13       0.00       0.00      0.000
12:24am           345          0          4         38         71       74.7       45.0      29.34       45.0        541       2206       -246      -2.10       0.00       0.00      0.000
12:25am           347          0          4         38         71       74.7       45.0      29.34       45.0        542       2206       -245      -2.06       0.00       0.00      0.000
12:26am            88          1          4         39         71       74.7       45.0      29.34       45.0        543       2206       -244      -2.03       0.00       0.00      0.000
12:27am            88          0          4         38         71       74.7       44.9      29.34       44.9        543       2205       -251      -2.09       0.00       0.00      0.000
12:28am            88          0          4         38         71       74.7       44.9      29.34       44.9        544       2205       -250      -2.06       0.00       0.00      0.000
12:29am            88          0          4         38         71       74.7       45.0      29.34       45.0        544       2206       -243      -1.92       0.00       0.00      0.000
12:30am            88          0          4         38         71       74.7       44.9      29.34       44.9        543       2205       -251      -1.99       0.00       0.00      0.000
12:31am            88          0          0         38         71       74.7       44.9      29.34       44.9        543       2205       -251      -1.96       0.00       0.00      0.000
12:32am            88          0          1         38         71       74.7       44.9      29.34       44.9        543       2205       -251      -1.93       0.00       0.00      0.000
12:33am            88          0          1         38         71       74.7       44.8      29.34       44.8        543       2204       -258      -1.99       0.00       0.00      0.000
12:34am            88          0          1         38         71       74.7       44.8      29.34       44.8        542       2204       -259      -1.96       0.00       0.00      0.000
12:35am            88          1          2         38         71       74.7       44.8      29.34       44.8        542       2204       -259      -1.93       0.00       0.00      0.000
12:36am            88          0          1         39         71       74.7       44.8      29.34       44.8        542       2204       -259      -1.90       0.00       0.00      0.000
12:37am            88          1          1         38         71       74.7       44.7      29.34       44.7        542       2203       -265      -1.97       0.00       0.00      0.000
12:38am            88          0          1         38         71       74.7       44.7      29.34       44.7        543       2203       -264      -1.93       0.00       0.00      0.000
12:39am            88          1          1         38         71       74.7       44.7      29.34       44.7        544       2203       -263      -1.90       0.00       0.00      0.000
12:40am            88          0          1         39         71       74.7       44.6      29.34       44.6        545       2202       -269      -1.97       0.00       0.00      0.000
12:41am            88          0          0         38         71       74.7       44.6      29.34       44.6        545       2202       -269      -1.94       0.00       0.00      0.000
12:42am            88          1          1         38         71       74.7       44.6      29.34       44.6        545       2202       -269      -1.91       0.00       0.00      0.000
12:43am            88          0          1         38         71       74.7       44.6      29.34       44.6        545       2202       -269      -1.87       0.00       0.00      0.000
12:44am            88          0          2         38         71       74.7       44.5      29.33       44.5        546       2201       -274      -1.94       0.00       0.00      0.000
12:45am            88          0          2         38         71       74.7       44.6      29.33       44.6        546       2202       -268      -1.81       0.00       0.00      0.000
12:46am            88          0          0         38         72       74.7       44.5      29.33       44.5        546       2113       -274      -1.88       0.00       0.00      0.000
12:47am            88          0          0         38         72       74.7       44.5      29.33       44.5        546       2113       -274      -1.85       0.00       0.00      0.000
12:48am            88          0          0         38         72       74.7       44.4      29.33       44.4        547       2112       -280      -1.92       0.00       0.00      0.000
12:49am            88          0          0         38         72       74.7       44.4      29.33       44.4        547       2112       -280      -1.88       0.00       0.00      0.000
12:50am           349          1          6         38         72       74.7       44.3      29.33       44.3        547       2111       -287      -1.95       0.00       0.00      0.000
12:51am           349          0          1         40         72       74.7       44.3      29.33       44.3        548       2111       -286      -1.92       0.00       0.00      0.000
12:52am           349          0          1         38         73       74.7       44.3      29.33       44.3        548       2024       -285      -1.89       0.00       0.00      0.000
12:53am           349          0          1         38         73       74.7       44.3      29.33       44.3        549       2024       -283      -1.86       0.00       0.00      0.000
12:54am           349          0          1         38         73       74.7       44.3      29.33       44.3        548       2024       -285      -1.83       0.00       0.00      0.000
12:55am           349          0          1         38         73       74.7       44.3      29.33       44.3        548       2024       -285      -1.80       0.00       0.00      0.000
12:56am           349          0          0         38         74       74.7       44.2      29.33       44.2        548       1937       -293      -1.87       0.00       0.00      0.000
12:57am           349          0          0         38         74       74.7       44.2      29.33       44.2        547       1937       -294      -1.84       0.00       0.00      0.000
12:58am           349          0          0         38         74       74.5       44.2      29.33       44.2        547       1937       -294      -1.80       0.00       0.00      0.000
12:59am           349          0          0         38         74       74.5       44.1      29.33       44.1        547       1936       -300      -1.87       0.00       0.00      0.000
1:00am            349          0          0         38         73       74.7       44.1      29.33       44.1        547       2022       -300      -1.84       0.00       0.00      0.000
1:01am            349          0          0         38         74       74.7       44.0      29.33       44.0        546       1935       -308      -1.91       0.00       0.00      0.000
1:02am            349          0          0         38         73       74.7       44.1      29.33       44.1        546       2022       -302      -1.78       0.00       0.00      0.000
1:03am            349          0          0         38         73       74.7       44.0      29.33       44.0        546       2021       -308      -1.85       0.00       0.00      0.000
1:04am            349          0          0         38         74       74.7       44.0      29.33       44.0        546       1935       -308      -1.82       0.00       0.00      0.000
1:05am            349          0          0         38         75       74.5       44.1      29.33       44.1        546       1851       -302      -1.69       0.00       0.00      0.000
1:06am            349          0          0         38         75       74.5       44.0      29.33       44.0        546       1850       -308      -1.76       0.00       0.00      0.000
1:07am            349          0          0         38         75       74.5       44.0      29.33       44.0        546       1850       -308      -1.73       0.00       0.00      0.000
1:08am            349          0          0         38         74       74.5       43.9      29.33       43.9        546       1934       -315      -1.80       0.00       0.00      0.000
1:09am            349          0          0         38         75       74.7       43.9      29.33       43.9        546       1850       -315      -1.77       0.00       0.00      0.000
1:10am            349          0          0         38         75       74.5       43.9      29.33       43.9        546       1850       -315      -1.75       0.00       0.00      0.000
1:11am            349          0          0         38         74       74.7       43.8      29.33       43.8        546       1934       -322      -1.82       0.00       0.00      0.000
1:12am            349          0          0         38         74       74.5       43.8      29.33       43.8        546       1934       -322      -1.79       0.00       0.00      0.000
1:13am            349          0          0         38         74       74.5       43.7      29.33       43.7        546       1933       -329      -1.85       0.00       0.00      0.000
1:14am            349          0          0         38         74       74.5       43.7      29.33       43.7        546       1933       -329      -1.82       0.00       0.00      0.000
1:15am            349          0          0         38         74       74.5       43.6      29.34       43.6        545       1932       -337      -1.89       0.00       0.00      0.000
1:16am            349          0          0         38         74       74.5       43.6      29.33       43.6        546       1932       -336      -1.86       0.00       0.00      0.000
1:17am            349          0          0         40         74       74.5       43.6      29.34       43.6        545       1932       -337      -1.83       0.00       0.00      0.000
1:18am            349          0          0         38         74       74.5       43.5      29.34       43.5        545       1931       -344      -1.90       0.00       0.00      0.000
1:19am            349          0          0         38         75       74.5       43.5      29.34       43.5        545       1846       -344      -1.87       0.00       0.00      0.000
1:20am            349          0          0         38         75       74.5       43.4      29.34       43.4        545       1846       -350      -1.94       0.00       0.00      0.000
1:21am            349          0          0         38         75       74.5       43.3      29.34       43.3        545       1845       -357      -2.00       0.00       0.00      0.000
1:22am            349          0          0         38         75       74.5       43.3      29.33       43.3        546       1845       -356      -1.97       0.00       0.00      0.000
1:23am            349          0          0         38         75       74.5       43.3      29.33       43.3        546       1845       -356      -1.94       0.00       0.00      0.000
1:24am            349          0          0         38         75       74.5       43.2      29.33       43.2        546       1844       -363      -2.00       0.00       0.00      0.000
1:25am            349          0          0         38         75       74.5       43.2      29.33       43.2        546       1844       -363      -1.97       0.00       0.00      0.000
1:26am            349          0          0         38         75       74.5       43.1      29.33       43.1        546       1843       -370      -2.04       0.00       0.00      0.000
1:27am            349          0          0         38         75       74.5       43.0      29.33       43.0        546       1842       -376      -2.10       0.00       0.00      0.000
1:28am            349          0          0         38         75       74.5       43.0      29.33       43.0        546       1842       -376      -2.07       0.00       0.00      0.000
1:29am            349          0          0         38         75       74.5       43.0      29.33       43.0        546       1842       -376      -2.04       0.00       0.00      0.000
1:30am            349          0          0         38         76       74.5       43.0      29.34       43.0        545       1759       -378      -2.00       0.00       0.00      0.000
1:31am            349          0          0         38         76       74.5       42.9      29.34       42.9        545       1758       -384      -2.07       0.00       0.00      0.000
1:32am            349          0          0         38         76       74.5       42.9      29.34       42.9        545       1758       -384      -2.04       0.00       0.00      0.000
1:33am            349          0          0         38         76       74.5       42.9      29.34       42.9        545       1758       -384      -2.00       0.00       0.00      0.000
1:34am            253          0          0         38         75       74.5       42.9      29.33       42.9        546       1841       -383      -1.97       0.00       0.00      0.000
1:35am            253          0          0         38         75       74.5       42.9      29.33       42.9        546       1841       -383      -1.94       0.00       0.00      0.000
1:36am            253          0          0         38         76       74.5       42.9      29.33       42.9        546       1758       -383      -1.91       0.00       0.00      0.000
1:37am            253          0          0         38         76       74.5       42.9      29.34       42.9        545       1758       -384      -1.87       0.00       0.00      0.000
1:38am            253          0          0         38         76       74.5       42.9      29.34       42.9        545       1758       -384      -1.84       0.00       0.00      0.000
1:39am            254          1          1         38         76       74.5       42.9      29.34       42.9        545       1758       -384      -1.81       0.00       0.00      0.000
1:40am            237          0          2         38         76       74.5       42.8      29.34       42.8        545       1757       -391      -1.88       0.00       0.00      0.000
1:41am            237          0          0         38         76       74.5       42.8      29.34       42.8        545       1757       -391      -1.85       0.00       0.00      0.000
1:42am            237          0          1         38         76       74.5       42.8      29.34       42.8        545       1757       -391      -1.82       0.00       0.00      0.000
1:43am            237          0          2         38         76       74.5       42.8      29.34       42.8        545       1757       -391      -1.79       0.00       0.00      0.000
1:44am            237          1          2         38         76       74.5       42.8      29.34       42.8        545       1757       -391      -1.76       0.00       0.00      0.000
1:45am            237          1          2         38         76       74.5       42.8      29.34       42.8        545       1757       -391      -1.73       0.00       0.00      0.000
1:46am            237          1          1         38         76       74.5       42.7      29.34       42.7        545       1756       -398      -1.80       0.00       0.00      0.000
1:47am            237          0          1         38         76       74.5       42.7      29.34       42.7        545       1756       -398      -1.77       0.00       0.00      0.000
1:48am            237          0          2         38         76       74.5       42.6      29.34       42.6        545       1756       -405      -1.84       0.00       0.00      0.000
1:49am            237          0          2         38         77       74.5       42.7      29.34       42.7        545       1674       -398      -1.71       0.00       0.00      0.000
1:50am            237          2          2         38         77       74.5       42.6      29.34       42.6        545       1673       -405      -1.78       0.00       0.00      0.000
1:51am            342          0          2         38         77       74.5       42.6      29.34       42.6        545       1673       -405      -1.75       0.00       0.00      0.000
1:52am            342          1          2         38         77       74.5       42.6      29.34       42.6        545       1673       -405      -1.72       0.00       0.00      0.000
1:53am            342          0          2         38         77       74.5       42.6      29.33       42.6        546       1673       -404      -1.70       0.00       0.00      0.000
1:54am            342          0          2         38         77       74.5       42.5      29.33       42.5        546       1673       -411      -1.77       0.00       0.00      0.000
1:55am            342          0          2         38         77       74.5       42.6      29.33       42.6        546       1673       -404      -1.64       0.00       0.00      0.000
1:56am            246          1          4         38         77       74.5       42.5      29.33       42.5        546       1673       -411      -1.71       0.00       0.00      0.000
1:57am            246          2          4         38         77       74.5       42.5      29.33       42.5        546       1673       -411      -1.68       0.00       0.00      0.000
1:58am            246          0          4         38         77       74.5       42.5      29.34       42.5        545       1673       -412      -1.65       0.00       0.00      0.000
1:59am            246          0          4         38         77       74.5       42.5      29.33       42.5        546       1673       -411      -1.63       0.00       0.00      0.000
2:00am            246          1          4         38         77       74.5       42.5      29.33       42.5        546       1673       -411      -1.60       0.00       0.00      0.000
2:01am            246          2          3         38         77       74.5       42.4      29.33       42.4        546       1672       -417      -1.67       0.00       0.00      0.000
2:02am            285          3          4         38         77       74.5       42.5      29.33       41.2        546       1673       -411      -1.54       0.00       0.00      0.000
2:03am            285          0          4         38         77       74.5       42.4      29.33       42.4        546       1672       -417      -1.62       0.00       0.00      0.000
2:04am            285          2          4         38         77       74.5       42.4      29.33       42.4        546       1672       -417      -1.59       0.00       0.00      0.000
2:05am            272          1          4         38         77       74.5       42.4      29.34       42.4        545       1672       -419      -1.56       0.00       0.00      0.000
2:06am            272          0          2         38         77       74.5       42.4      29.34       42.4        545       1672       -419      -1.54       0.00       0.00      0.000
2:07am            272          0          2         38         77       74.5       42.4      29.34       42.4        545       1672       -419      -1.51       0.00       0.00      0.000
2:08am            195          2          4         38         77       74.5       42.4      29.34       42.4        545       1672       -419      -1.49       0.00       0.00      0.000
2:09am            195          2          4         38         77       74.5       42.4      29.34       42.4        545       1672       -419      -1.46       0.00       0.00      0.000
2:10am            195          2          4         38         77       74.5       42.4      29.34       42.4        545       1672       -419      -1.44       0.00       0.00      0.000
2:11am            195          2          2         38         77       74.5       42.4      29.34       42.4        545       1672       -419      -1.42       0.00       0.00      0.000
2:12am            196          0          3         38         78       74.5       42.3      29.34       42.3        545       1590       -425      -1.49       0.00       0.00      0.000
2:13am            196          2          3         38         78       74.5       42.4      29.34       42.4        545       1590       -419      -1.37       0.00       0.00      0.000
2:14am            196          1          3         38         77       74.5       42.4      29.34       42.4        545       1672       -419      -1.34       0.00       0.00      0.000
2:15am            195          1          3         38         77       74.5       42.3      29.34       42.3        545       1671       -425      -1.42       0.00       0.00      0.000
2:16am            196          2          3         38         77       74.5       42.3      29.34       42.3        545       1671       -425      -1.40       0.00       0.00      0.000
2:17am            196          0          3         38         77       74.5       42.3      29.34       42.3        545       1671       -425      -1.38       0.00       0.00      0.000
2:18am            196          2          3         38         77       74.5       42.3      29.34       42.3        545       1671       -425      -1.35       0.00       0.00      0.000
2:19am            196          1          3         38         77       74.5       42.3      29.34       42.3        545       1671       -425      -1.33       0.00       0.00      0.000
2:20am            196          3          3         38         77       74.5       42.3      29.34       41.0        545       1671       -425      -1.31       0.00       0.00      0.000
2:21am            196          2          3         38         77       74.5       42.3      29.34       42.3        545       1671       -425      -1.29       0.00       0.00      0.000
2:22am            196          1          3         38         77       74.5       42.3      29.34       42.3        545       1671       -425      -1.27       0.00       0.00      0.000
2:23am            241          3          3         38         77       74.5       42.4      29.34       41.1        545       1672       -419      -1.15       0.00       0.00      0.000
2:24am            300          1          5         38         77       74.5       42.4      29.34       42.4        545       1672       -419      -1.13       0.00       0.00      0.000
2:25am             37          1          5         38         77       74.5       42.3      29.34       42.3        545       1671       -425      -1.21       0.00       0.00      0.000
2:26am             37          1          2         38         77       74.3       42.4      29.34       42.4        545       1672       -419      -1.09       0.00       0.00      0.000
2:27am             37          0          2         38         77       74.3       42.4      29.34       42.4        545       1672       -419      -1.07       0.00       0.00      0.000
2:28am             37          0          2         38         77       74.3       42.4      29.34       42.4        545       1672       -419      -1.05       0.00       0.00      0.000
2:29am             37          0          2         38         77       74.3       42.4      29.34       42.4        545       1672       -419      -1.04       0.00       0.00      0.000
2:30am             41          0          2         38         77       74.5       42.3      29.34       42.3        545       1671       -425      -1.12       0.00       0.00      0.000
2:31am            310          1          5         38         77       74.3       42.3      29.34       42.3        545       1671       -425      -1.10       0.00       0.00      0.000
2:32am            310          0          5         38         77       74.3       42.4      29.34       42.4        545       1672       -419      -0.99       0.00       0.00      0.000
2:33am            310          1          5         38         77       74.3       42.3      29.34       42.3        545       1671       -425      -1.07       0.00       0.00      0.000
2:34am            310          2          5         38         77       74.3       42.3      29.33       42.3        546       1671       -424      -1.05       0.00       0.00      0.000
2:35am            318          1          5         38         77       74.3       42.3      29.34       42.3        545       1671       -425      -1.03       0.00       0.00      0.000
2:36am            318          0          2         38         77       74.3       42.3      29.34       42.3        545       1671       -425      -1.02       0.00       0.00      0.000
2:37am            318          0          2         38         77       74.3       42.3      29.33       42.3        546       1671       -424      -1.00       0.00       0.00      0.000
2:38am            318          0          2         38         77       74.3       42.3      29.33       42.3        546       1671       -424      -0.98       0.00       0.00      0.000
2:39am            185          1          2         38         77       74.3       42.3      29.33       42.3        546       1671       -424      -0.96       0.00       0.00      0.000
2:40am            185          0          2         38         76       74.3       42.2      29.34       42.2        545       1753       -432      -1.05       0.00       0.00      0.000
2:41am            185          0          2         38         76       74.3       42.2      29.33       42.2        546       1753       -431      -1.03       0.00       0.00      0.000
2:42am            185          1          2         38         76       74.3       42.2      29.34       42.2        545       1753       -432      -1.01       0.00       0.00      0.000
2:43am            185          0          3         38         76       74.3       42.2      29.34       42.2        545       1753       -432      -1.00       0.00       0.00      0.000
2:44am            183          1          3         38         77       74.3       42.2      29.34       42.2        545       1670       -432      -0.98       0.00       0.00      0.000
2:45am            300          0          4         38         76       74.3       42.2      29.34       42.2        545       1753       -432      -0.96       0.00       0.00      0.000
2:46am            300          2          2         38         76       74.3       42.2      29.34       42.2        545       1753       -432      -0.95       0.00       0.00      0.000
2:47am            300          0          2         38         77       74.3       42.2      29.34       42.2        545       1670       -432      -0.93       0.00       0.00      0.000
2:48am            300          0          2         38         77       74.3       42.2      29.34       42.2        545       1670       -432      -0.92       0.00       0.00      0.000
2:49am            300          1          3         38         77       74.3       42.2      29.34       42.2        545       1670       -432      -0.90       0.00       0.00      0.000
2:50am            300          2          3         38         77       74.3       42.2      29.34       42.2        545       1670       -432      -0.89       0.00       0.00      0.000
2:51am            300          0          2         38         77       74.3       42.1      29.34       42.1        545       1670       -439      -0.97       0.00       0.00      0.000
2:52am            258          2          3         38         77       74.3       42.2      29.34       42.2        545       1670       -432      -0.86       0.00       0.00      0.000
2:53am            258          2          3         38         77       74.3       42.1      29.34       42.1        545       1670       -439      -0.94       0.00       0.00      0.000
2:54am            258          0          3         38         77       74.3       42.1      29.34       42.1        545       1670       -439      -0.93       0.00       0.00      0.000
2:55am            300          3          4         38         77       74.3       42.2      29.34       40.9        545       1670       -432      -0.81       0.00       0.00      0.000
2:56am            300          2          3         38         77       74.3       42.1      29.34       42.1        545       1670       -439      -0.90       0.00       0.00      0.000
2:57am            300          1          3         38         76       74.3       42.1      29.34       42.1        545       1752       -439      -0.88       0.00       0.00      0.000
2:58am            296          1          3         38         77       74.3       42.1      29.34       42.1        545       1670       -439      -0.87       0.00       0.00      0.000
2:59am            319          0          3         38         77       74.3       42.1      29.34       42.1        545       1670       -439      -0.85       0.00       0.00      0.000
3:00am            310          1          3         38         77       74.3       42.0      29.34       42.0        545       1669       -446      -0.94       0.00       0.00      0.000
3:01am            317          3          3         38         77       74.3       42.0      29.34       40.6        545       1669       -446      -0.92       0.00       0.00      0.000
3:02am            310          3          3         38         77       74.3       42.0      29.34       40.6        545       1669       -446      -0.91       0.00       0.00      0.000
3:03am            288          2          4         38         77       74.3       42.0      29.34       42.0        545       1669       -446      -0.89       0.00       0.00      0.000
3:04am            324          2          4         38         76       74.3       42.0      29.34       42.0        545       1751       -446      -0.88       0.00       0.00      0.000
3:05am            324          2          4         38         77       74.3       42.0      29.34       42.0        545       1669       -446      -0.86       0.00       0.00      0.000
3:06am            243          0          3         38         77       74.3       41.9      29.33       41.9        546       1668       -452      -0.95       0.00       0.00      0.000
3:07am            243          0          3         38         77       74.3       42.0      29.34       42.0        545       1669       -446      -0.83       0.00       0.00      0.000
3:08am            231          3          3         38         78       74.3       41.9      29.33       40.5        546       1587       -452      -0.92       0.00       0.00      0.000
3:09am            231          3          4         38         77       74.3       41.9      29.33       40.5        546       1668       -452      -0.90       0.00       0.00      0.000
3:10am            347          3          4         38         77       74.3       41.9      29.33       40.5        546       1668       -452      -0.89       0.00       0.00      0.000
3:11am            347          0          3         38         77       74.3       41.9      29.33       41.9        546       1668       -452      -0.87       0.00       0.00      0.000
3:12am            347          0          3         38         77       74.3       41.9      29.34       41.9        545       1668       -453      -0.86       0.00       0.00      0.000
3:13am            347          0          3         38         77       74.3       41.9      29.33       41.9        546       1668       -452      -0.85       0.00       0.00      0.000
3:14am            287          0          3         38         77       74.3       41.9      29.33       41.9        546       1668       -452      -0.83       0.00       0.00      0.000
3:15am            287          2          3         38         77       74.3       41.9      29.33       41.9        546       1668       -452      -0.82       0.00       0.00      0.000
3:16am            287          0          2         38         77       74.3       41.9      29.34       41.9        545       1668       -453      -0.80       0.00       0.00      0.000
3:17am            287          0          2         38         77       74.3       41.8      29.33       41.8        546       1667       -458      -0.89       0.00       0.00      0.000
3:18am            357          4          5         38         77       74.3       41.9      29.33       39.5        546       1668       -452      -0.78       0.00       0.00      0.000
3:19am            349          4          8         38         76       74.3       41.8      29.33       39.4        547       1749       -457      -0.86       0.00       0.00      0.000
3:20am             51          3          8         38         76       74.3       41.9      29.33       40.5        547       1750       -450      -0.75       0.00       0.00      0.000
3:21am             49          1          3         38         76       74.3       41.9      29.33       41.9        547       1750       -450      -0.74       0.00       0.00      0.000
3:22am             18          3          4         38         76       74.3       42.0      29.33       40.6        547       1751       -444      -0.63       0.00       0.00      0.000
3:23am            249          2          4         38         76       74.3       42.0      29.33       42.0        548       1751       -442      -0.61       0.00       0.00      0.000
3:24am            231          2          4         38         76       74.3       42.0      29.33       42.0        548       1751       -442      -0.60       0.00       0.00      0.000
3:25am            106          1          4         38         76       74.3       42.0      29.33       42.0        548       1751       -442      -0.59       0.00       0.00      0.000
3:26am            346          2          3         38         76       74.3       41.9      29.33       41.9        547       1750       -450      -0.68       0.00       0.00      0.000
3:27am             68          2          3         38         75       74.3       42.0      29.33       42.0        547       1834       -444      -0.57       0.00       0.00      0.000
3:28am             68          0          3         38         75       74.3       42.0      29.33       42.0        546       1834       -445      -0.56       0.00       0.00      0.000
3:29am            342          3          5         38         75       74.3       42.0      29.34       40.6        545       1834       -446      -0.56       0.00       0.00      0.000
3:30am            342          0          5         38         74       74.3       42.1      29.33       42.1        546       1919       -438      -0.45       0.00       0.00      0.000
3:31am            342          0          1         38         75       74.3       42.0      29.34       42.0        545       1834       -446      -0.54       0.00       0.00      0.000
3:32am            340          2          3         38         75       74.3       42.1      29.34       42.1        545       1835       -439      -0.43       0.00       0.00      0.000
3:33am            342          1          3         38         75       74.3       42.1      29.34       42.1        545       1835       -439      -0.42       0.00       0.00      0.000
3:34am            341          0          3         38         75       74.2       42.1      29.34       42.1        545       1835       -439      -0.41       0.00       0.00      0.000
3:35am            340          2          3         38         75       74.2       42.1      29.34       42.1        544       1835       -440      -0.41       0.00       0.00      0.000
3:36am            340          0          2         38         75       74.3       42.0      29.34       42.0        544       1834       -447      -0.50       0.00       0.00      0.000
3:37am            340          0          2         38         75       74.2       42.1      29.34       42.1        544       1835       -440      -0.39       0.00       0.00      0.000
3:38am            340          0          2         38         75       74.2       42.1      29.34       42.1        544       1835       -440      -0.38       0.00       0.00      0.000
3:39am            239          2          3         38         76       74.2       42.0      29.34       42.0        543       1751       -448      -0.48       0.00       0.00      0.000
3:40am            239          1          3         38         74       74.2       42.0      29.34       42.0        543       1918       -448      -0.47       0.00       0.00      0.000
3:41am            272          1          4         38         74       74.2       42.0      29.34       42.0        542       1918       -449      -0.46       0.00       0.00      0.000
3:42am            272          0          4         38         74       74.2       42.1      29.34       42.1        542       1919       -442      -0.35       0.00       0.00      0.000
3:43am            347          3          4         38         74       74.2       42.0      29.34       40.6        542       1918       -449      -0.45       0.00       0.00      0.000
3:44am            347          1          4         38         74       74.3       42.0      29.34       42.0        541       1918       -450      -0.44       0.00       0.00      0.000
3:45am            196          2          4         38         74       74.3       42.0      29.34       42.0        540       1918       -452      -0.43       0.00       0.00      0.000
3:46am            196          0          2         38         75       74.2       42.0      29.34       42.0        542       1834       -449      -0.42       0.00       0.00      0.000
3:47am            196          1          2         38         75       74.2       42.0      29.34       42.0        539       1834       -453      -0.42       0.00       0.00      0.000
3:48am            196          0          2         38         75       74.2       42.0      29.34       42.0        540       1834       -452      -0.41       0.00       0.00      0.000
3:49am            196          0          2         38         75       74.2       42.0      29.34       42.0        540       1834       -452      -0.40       0.00       0.00      0.000
3:50am            196          0          2         38         75       74.2       42.0      29.34       42.0        540       1834       -452      -0.40       0.00       0.00      0.000
3:51am            196          1          2         38         75       74.2       41.9      29.34       41.9        538       1833       -461      -0.49       0.00       0.00      0.000
3:52am            196          0          2         38         75       74.2       41.9      29.34       41.9        538       1833       -461      -0.48       0.00       0.00      0.000
3:53am            196          0          2         38         75       74.2       41.8      29.34       41.8        538       1832       -468      -0.57       0.00       0.00      0.000
3:54am            196          1          2         38         75       74.2       41.8      29.34       41.8        538       1832       -468      -0.56       0.00       0.00      0.000
3:55am            196          1          2         38         75       74.2       41.8      29.34       41.8        537       1832       -469      -0.55       0.00       0.00      0.000
3:56am            196          1          2         38         75       74.2       41.7      29.34       41.7        537       1832       -476      -0.64       0.00       0.00      0.000
3:57am            310          2          4         38         75       74.2       41.7      29.34       41.6        536       1832       -477      -0.63       0.00       0.00      0.000
3:58am            293          2          4         38         75       74.2       41.6      29.35       41.5        536       1831       -485      -0.72       0.00       0.00      0.000
3:59am            293          0          4         38         75       74.2       41.6      29.35       41.6        536       1831       -485      -0.71       0.00       0.00      0.000
4:00am            293          1          4         38         75       74.2       41.6      29.35       41.6        536       1831       -485      -0.70       0.00       0.00      0.000
4:01am            293          1          2         38         76       74.2       41.5      29.35       41.5        535       1747       -493      -0.79       0.00       0.00      0.000
4:02am            293          2          2         38         76       74.2       41.6      29.35       41.5        534       1748       -487      -0.67       0.00       0.00      0.000
4:03am            293          0          2         38         76       74.2       41.5      29.35       41.5        533       1747       -495      -0.76       0.00       0.00      0.000
4:04am            293          2          2         38         75       74.2       41.5      29.35       41.4        532       1830       -496      -0.75       0.00       0.00      0.000
4:05am            293          0          2         38         75       74.2       41.5      29.35       41.5        531       1830       -497      -0.74       0.00       0.00      0.000
4:06am             31          1          1         38         76       74.2       41.5      29.35       41.5        532       1747       -496      -0.73       0.00       0.00      0.000
4:07am             31          1          2         38         76       74.2       41.5      29.35       41.5        532       1747       -496      -0.71       0.00       0.00      0.000
4:08am             31          0          3         38         76       74.2       41.5      29.35       41.5        531       1747       -497      -0.70       0.00       0.00      0.000
4:09am             31          2          3         38         76       74.2       41.5      29.35       41.4        532       1747       -496      -0.69       0.00       0.00      0.000
4:10am             31          0          3         38         76       74.2       41.5      29.35       41.5        532       1747       -496      -0.68       0.00       0.00      0.000
4:11am            162          2          2         38         76       74.2       41.4      29.35       41.3        531       1746       -504      -0.76       0.00       0.00      0.000
4:12am            162          2          2         38         76       74.2       41.4      29.35       41.3        532       1746       -503      -0.75       0.00       0.00      0.000
4:13am            162          0          2         38         76       74.2       41.5      29.35       41.5        531       1747       -497      -0.64       0.00       0.00      0.000
4:14am            162          0          2         38         76       74.2       41.4      29.35       41.4        531       1746       -504      -0.73       0.00       0.00      0.000
4:15am            162          0          2         38         76       74.2       41.4      29.35       41.4        531       1746       -504      -0.72       0.00       0.00      0.000
4:16am            162          2          3         38         75       74.2       41.3      29.35       41.2        532       1828       -510      -0.81       0.00       0.00      0.000
4:17am             70          3          5         38         75       74.2       41.4      29.35       39.9        531       1829       -504      -0.69       0.00       0.00      0.000
4:18am             77          0          5         38         75       74.2       41.3      29.35       41.3        531       1828       -511      -0.78       0.00       0.00      0.000
4:19am             73          0          5         38         75       74.2       41.4      29.35       41.4        530       1829       -505      -0.67       0.00       0.00      0.000
4:20am             73          0          5         38         75       74.2       41.3      29.35       41.3        530       1828       -512      -0.76       0.00       0.00      0.000
4:21am             73          0          2         38         75       74.2       41.4      29.35       41.4        529       1829       -506      -0.64       0.00       0.00      0.000
4:22am             74          0          2         38         75       74.2       41.3      29.35       41.3        529       1828       -513      -0.73       0.00       0.00      0.000
4:23am             74          0          2         38         75       74.0       41.4      29.35       41.4        529       1829       -506      -0.62       0.00       0.00      0.000
4:24am             74          0          2         38         75       74.0       41.4      29.35       41.4        529       1829       -506      -0.61       0.00       0.00      0.000
4:25am             74          0          2         38         75       74.0       41.3      29.35       41.3        529       1828       -513      -0.70       0.00       0.00      0.000
4:26am             74          0          0         38         75       74.0       41.3      29.35       41.3        529       1828       -513      -0.69       0.00       0.00      0.000
4:27am             74          0          0         38         76       74.0       41.3      29.35       41.3        529       1745       -513      -0.68       0.00       0.00      0.000
4:28am             74          0          0         38         76       74.0       41.3      29.35       41.3        529       1745       -513      -0.66       0.00       0.00      0.000
4:29am            351          3          3         38         76       74.0       41.2      29.35       39.7        529       1745       -520      -0.75       0.00       0.00      0.000
4:30am            327          1          4         38         76       74.0       41.3      29.35       41.3        529       1745       -513      -0.64       0.00       0.00      0.000
4:31am            328          2          2         38         75       74.0       41.3      29.35       41.2        529       1828       -513      -0.63       0.00       0.00      0.000
4:32am            328          1          2         38         76       74.0       41.3      29.35       41.3        529       1745       -513      -0.62       0.00       0.00      0.000
4:33am            328          1          2         38         76       74.0       41.3      29.35       41.3        529       1745       -513      -0.61       0.00       0.00      0.000
4:34am            346          2          3         38         75       74.0       41.3      29.35       41.2        529       1828       -513      -0.60       0.00       0.00      0.000
4:35am            346          0          3         38         75       74.0       41.2      29.35       41.2        529       1828       -520      -0.69       0.00       0.00      0.000
4:36am            346          0          0         38         75       74.0       41.3      29.35       41.3        529       1828       -513      -0.58       0.00       0.00      0.000
4:37am            346          0          0         38         75       74.0       41.2      29.35       41.2        529       1828       -520      -0.67       0.00       0.00      0.000
4:38am            346          0          0         38         75       74.0       41.2      29.35       41.2        529       1828       -520      -0.65       0.00       0.00      0.000
4:39am            346          0          0         38         75       74.0       41.2      29.35       41.2        529       1828       -520      -0.64       0.00       0.00      0.000
4:40am            346          0          0         38         75       74.0       41.2      29.35       41.2        529       1828       -520      -0.63       0.00       0.00      0.000
4:41am            346          0          2         38         75       74.0       41.2      29.35       41.2        528       1828       -521      -0.62       0.00       0.00      0.000
4:42am            346          1          2         38         75       74.0       41.2      29.35       41.2        529       1828       -520      -0.61       0.00       0.00      0.000
4:43am            346          0          2         38         75       74.0       41.2      29.35       41.2        529       1828       -520      -0.60       0.00       0.00      0.000
4:44am            346          2          3         38         75       74.0       41.2      29.35       41.1        528       1828       -521      -0.59       0.00       0.00      0.000
4:45am            318          1          3         38         75       74.0       41.2      29.35       41.2        528       1828       -521      -0.58       0.00       0.00      0.000
4:46am            317          1          1         38         75       74.0       41.3      29.35       41.3        528       1828       -514      -0.47       0.00       0.00      0.000
4:47am            317          1          2         38         76       74.0       41.3      29.35       41.3        528       1745       -514      -0.47       0.00       0.00      0.000
4:48am            317          1          2         38         76       74.0       41.4      29.35       41.4        528       1746       -507      -0.36       0.00       0.00      0.000
4:49am            317          1          2         38         76       74.0       41.4      29.35       41.4        528       1746       -507      -0.35       0.00       0.00      0.000
4:50am            283          0          2         38         76       74.0       41.5      29.35       41.5        528       1747       -501      -0.25       0.00       0.00      0.000
4:51am            283          1          1         38         76       74.0       41.4      29.35       41.4        528       1746       -507      -0.34       0.00       0.00      0.000
4:52am            283          1          2         38         76       74.0       41.4      29.35       41.4        528       1746       -507      -0.34       0.00       0.00      0.000
4:53am            293          3          4         38         76       74.0       41.5      29.35       40.1        528       1747       -501      -0.23       0.00       0.00      0.000
4:54am            293          1          4         39         75       74.0       41.5      29.35       41.5        527       1830       -502      -0.23       0.00       0.00      0.000
4:55am            293          1          4         38         75       74.0       41.5      29.35       41.5        527       1830       -502      -0.23       0.00       0.00      0.000
4:56am            262          0          1         38         75       74.0       41.5      29.35       41.5        527       1830       -502      -0.22       0.00       0.00      0.000
4:57am            260          1          2         38         76       74.0       41.6      29.36       41.6        526       1748       -496      -0.12       0.00       0.00      0.000
4:58am            260          2          2         38         75       74.0       41.6      29.36       41.5        526       1831       -496      -0.12       0.00       0.00      0.000
4:59am            260          0          2         38         76       74.0       41.6      29.36       41.6        525       1748       -497      -0.12       0.00       0.00      0.000
5:00am            340          1          3         38         76       74.0       41.6      29.36       41.6        526       1748       -496      -0.11       0.00       0.00      0.000
5:01am            208          2          3         38         75       74.0       41.7      29.36       41.6        525       1832       -490      -0.01       0.00       0.00      0.000
5:02am            208          1          3         38         75       74.0       41.7      29.36       41.7        524       1832       -492      -0.01       0.00       0.00      0.000
5:03am            260          3          3         38         75       74.0       41.8      29.36       40.4        524       1832       -485       0.09       0.00       0.00      0.000
5:04am            287          2          3         38         75       74.0       41.8      29.36       41.7        526       1832       -482       0.09       0.00       0.00      0.000
5:05am            292          2          3         38         75       74.0       41.8      29.36       41.7        525       1832       -484       0.08       0.00       0.00      0.000
5:06am            292          2          2         38         75       74.0       41.8      29.36       41.7        524       1832       -485       0.08       0.00       0.00      0.000
5:07am            292          2          3         38         75       74.0       41.8      29.36       41.7        524       1832       -486       0.08       0.00       0.00      0.000
5:08am            265          3          3         38         75       74.0       41.8      29.36       40.4        525       1832       -484       0.08       0.00       0.00      0.000
5:09am            359          1          4         38         75       74.0       41.8      29.36       41.8        524       1832       -485       0.08       0.00       0.00      0.000
5:10am            359          1          4         38         74       74.0       41.8      29.36       41.8        523       1916       -487       0.08       0.00       0.00      0.000
5:11am            333          1          4         38         74       74.0       41.9      29.36       41.9        523       1917       -480       0.17       0.00       0.00      0.000
5:12am            201          2          4         38         74       74.0       41.9      29.36       41.9        522       1917       -481       0.17       0.00       0.00      0.000
5:13am            346          1          4         38         74       74.0       41.9      29.36       41.9        523       1917       -480       0.17       0.00       0.00      0.000
5:14am            322          3          4         38         74       74.0       41.9      29.36       40.5        523       1917       -480       0.17       0.00       0.00      0.000
5:15am            242          2          5         38         74       74.0       41.9      29.36       41.9        523       1917       -480       0.16       0.00       0.00      0.000
5:16am            314          3          3         38         74       74.0       41.9      29.36       40.5        523       1917       -480       0.16       0.00       0.00      0.000
5:17am            220          8          8         38         74       74.0       41.9      29.36       36.9        521       1917       -482       0.16       0.00       0.00      0.000
5:18am            276          1          8         38         74       73.8       41.8      29.36       41.8        524       1916       -486       0.06       0.00       0.00      0.000
5:19am            277          0          8         38         74       73.8       41.9      29.36       41.9        522       1917       -481       0.16       0.00       0.00      0.000
5:20am            277          2          8         38         73       73.8       41.9      29.36       41.9        523       2002       -480       0.15       0.00       0.00      0.000
5:21am            277          0          2         38         73       73.8       41.8      29.36       41.8        523       2002       -487       0.05       0.00       0.00      0.000
5:22am            355          1          3         38         73       73.8       41.8      29.36       41.8        523       2002       -487       0.05       0.00       0.00      0.000
5:23am            286          3          3         38         72       73.8       41.8      29.36       40.4        522       2088       -488       0.05       0.00       0.00      0.000
5:24am            295          4          4         38         73       73.8       41.8      29.36       39.4        523       2002       -487       0.05       0.00       0.00      0.000
5:25am            281          2          5         38         74       73.8       41.8      29.36       41.7        522       1916       -488       0.05       0.00       0.00      0.000
5:26am            305          1          5         38         73       73.8       41.8      29.36       41.8        521       2002       -489       0.05       0.00       0.00      0.000
5:27am            305          0          5         38         72       73.8       41.7      29.36       41.7        521       2087       -496      -0.05       0.00       0.00      0.000
5:28am            213          2          6         38         72       73.8       41.7      29.36       41.6        521       2087       -496      -0.05       0.00       0.00      0.000
5:29am            287          1          6         38         73       73.8       41.7      29.36       41.7        519       2001       -498      -0.05       0.00       0.00      0.000
5:30am            287          2          6         38         73       73.8       41.7      29.36       41.6        519       2001       -498      -0.05       0.00       0.00      0.000
5:31am            357          2          3         38         73       73.8       41.6      29.36       41.5        519       2000       -505      -0.15       0.00       0.00      0.000
5:32am            285          2          5         37         73       73.8       41.6      29.36       41.5        518       2000       -506      -0.14       0.00       0.00      0.000
5:33am            285          3          5         38         73       73.8       41.6      29.36       40.2        518       2000       -506      -0.14       0.00       0.00      0.000
5:34am            285          0          5         38         73       73.8       41.5      29.37       41.5        517       1999       -514      -0.24       0.00       0.00      0.000
5:35am            285          1          5         38         73       73.8       41.6      29.37       41.6        517       2000       -508      -0.14       0.00       0.00      0.000
5:36am            305          3          3         37         74       73.8       41.6      29.37       40.2        517       1915       -508      -0.13       0.00       0.00      0.000
5:37am             64          1          4         38         73       73.8       41.5      29.36       41.5        518       1999       -513      -0.23       0.00       0.00      0.000
5:38am            262          3          4         38         73       73.8       41.5      29.37       40.1        517       1999       -514      -0.23       0.00       0.00      0.000
5:39am            305          2          4         38         72       73.8       41.5      29.37       41.4        516       2085       -516      -0.22       0.00       0.00      0.000
5:40am             95          3          4         38         72       73.8       41.4      29.37       39.9        515       2084       -524      -0.32       0.00       0.00      0.000
5:41am             95          1          3         38         73       73.8       41.5      29.37       41.5        515       1999       -517      -0.21       0.00       0.00      0.000
5:42am             95          2          3         38         73       73.8       41.4      29.37       41.3        515       1998       -524      -0.31       0.00       0.00      0.000
5:43am             95          2          3         38         73       73.8       41.4      29.37       41.3        515       1998       -524      -0.30       0.00       0.00      0.000
5:44am             82          2          3         38         73       73.8       41.4      29.37       41.3        515       1998       -524      -0.30       0.00       0.00      0.000
5:45am             82          1          3         38         73       73.8       41.4      29.37       41.4        514       1998       -525      -0.29       0.00       0.00      0.000
5:46am             81          2          2         38         72       73.8       41.3      29.37       41.2        514       2083       -532      -0.39       0.00       0.00      0.000
5:47am            281          3          6         38         73       73.8       41.3      29.37       39.8        515       1997       -530      -0.38       0.00       0.00      0.000
5:48am            293          4          6         38         73       73.8       41.3      29.37       38.8        514       1997       -532      -0.38       0.00       0.00      0.000
5:49am            292          1          6         38         72       73.8       41.3      29.37       41.3        514       2083       -532      -0.37       0.00       0.00      0.000
5:50am            295          0          6         37         72       73.8       41.3      29.37       41.3        514       2083       -532      -0.36       0.00       0.00      0.000
5:51am            264          3          3         38         73       73.8       41.2      29.37       39.7        514       1996       -538      -0.46       0.00       0.00      0.000
5:52am            320          2          4         38         72       73.8       41.2      29.37       41.1        514       2082       -538      -0.45       0.00       0.00      0.000
5:53am            320          2          4         38         72       73.8       41.2      29.37       41.1        514       2082       -538      -0.44       0.00       0.00      0.000
5:54am            320          1          4         37         73       73.8       41.2      29.37       41.2        513       1996       -540      -0.43       0.00       0.00      0.000
5:55am            320          0          4         38         74       73.8       41.2      29.37       41.2        513       1911       -540      -0.43       0.00       0.00      0.000
5:56am            320          2          3         37         73       73.8       41.2      29.37       41.1        513       1996       -540      -0.42       0.00       0.00      0.000
5:57am            305          1          4         38         73       73.8       41.1      29.37       41.1        513       1995       -546      -0.51       0.00       0.00      0.000
5:58am            305          3          4         38         72       73.8       41.1      29.37       39.6        512       2081       -548      -0.50       0.00       0.00      0.000
5:59am            351          3          4         38         72       73.8       41.0      29.37       39.5        512       2080       -554      -0.59       0.00       0.00      0.000
6:00am            237          0          4         38         72       73.8       41.0      29.37       41.0        512       2080       -554      -0.58       0.00       0.00      0.000
6:01am            237          1          2         38         72       73.8       40.9      29.37       40.9        512       2079       -562      -0.67       0.00       0.00      0.000
6:02am            300          3          3         38         72       73.8       40.9      29.37       39.4        511       2079       -564      -0.66       0.00       0.00      0.000
6:03am            287          2          3         37         73       73.8       40.9      29.37       40.8        511       1994       -564      -0.65       0.00       0.00      0.000
6:04am            284          3          3         38         73       73.8       40.9      29.37       39.4        510       1994       -565      -0.64       0.00       0.00      0.000
6:05am            168          1          3         38         73       73.8       40.8      29.37       40.8        509       1993       -573      -0.73       0.00       0.00      0.000
6:06am            169          0          2         38         73       73.8       40.8      29.38       40.8        507       1993       -575      -0.72       0.00       0.00      0.000
6:07am            169          0          2         38         73       73.8       40.8      29.38       40.8        506       1993       -576      -0.70       0.00       0.00      0.000
6:08am            169          2          3         37         73       73.8       40.8      29.38       40.6        503       1993       -580      -0.69       0.00       0.00      0.000
6:09am            286          3          3         38         73       73.8       40.6      29.38       39.0        504       1991       -592      -0.88       0.00       0.00      0.000
6:10am            286          0          3         37         72       73.8       40.7      29.38       40.7        502       2077       -588      -0.77       0.00       0.00      0.000
6:11am            286          2          2         38         72       73.8       40.6      29.38       40.4        501       2076       -596      -0.85       0.00       0.00      0.000
6:12am            286          0          2         37         73       73.8       40.6      29.38       40.6        501       1991       -596      -0.84       0.00       0.00      0.000
6:13am            286          2          3         37         73       73.6       40.6      29.38       40.4        501       1991       -596      -0.82       0.00       0.00      0.000
6:14am            285          2          3         38         73       73.6       40.6      29.38       40.4        502       1991       -594      -0.81       0.00       0.00      0.000
6:15am            247          2          4         38         73       73.6       40.6      29.38       40.4        501       1991       -596      -0.80       0.00       0.00      0.000
6:16am            244          1          2         38         73       73.6       40.5      29.38       40.5        501       1990       -602      -0.88       0.00       0.00      0.000
6:17am            345          3          4         37         73       73.6       40.5      29.38       38.9        500       1990       -604      -0.87       0.00       0.00      0.000
6:18am            345          2          4         37         73       73.6       40.5      29.38       40.3        500       1990       -604      -0.85       0.00       0.00      0.000
6:19am            346          1          4         37         74       73.6       40.5      29.38       40.5        500       1905       -604      -0.84       0.00       0.00      0.000
6:20am            300          3          5         37         73       73.6       40.5      29.38       38.9        500       1990       -604      -0.83       0.00       0.00      0.000
6:21am            300          2          3         38         73       73.6       40.4      29.38       40.2        500       1989       -612      -0.91       0.00       0.00      0.000
6:22am            300          0          3         38         73       73.6       40.3      29.38       40.3        500       1988       -617      -1.00       0.00       0.00      0.000
6:23am            300          3          3         39         73       73.6       40.3      29.38       38.7        500       1988       -618      -0.98       0.00       0.00      0.000
6:24am            300          1          3         37         72       73.6       40.2      29.38       40.2        500       2073       -625      -1.06       0.00       0.00      0.000
6:25am            300          3          3         37         73       73.6       40.3      29.38       38.7        500       1988       -618      -0.94       0.00       0.00      0.000
6:26am            294          2          3         37         73       73.6       40.2      29.38       40.0        500       1987       -625      -1.03       0.00       0.00      0.000
6:27am            294          1          3         37         73       73.6       40.2      29.38       40.2        500       1987       -625      -1.01       0.00       0.00      0.000
6:28am            293          1          3         38         74       73.6       40.2      29.38       40.2        499       1903       -626      -0.99       0.00       0.00      0.000
6:29am            182          2          3         38         73       73.6       40.2      29.38       40.0        499       1987       -626      -0.98       0.00       0.00      0.000
6:30am            182          1          3         37         73       73.6       40.1      29.38       40.1        499       1986       -633      -1.06       0.00       0.00      0.000
6:31am            182          1          3         37         72       73.6       40.1      29.39       40.1        498       2072       -634      -1.04       0.00       0.00      0.000
6:32am            182          0          3         37         72       73.6       40.0      29.39       40.0        498       2071       -641      -1.13       0.00       0.00      0.000
6:33am            182          0          3         37         72       73.6       40.1      29.39       40.1        497       2072       -636      -1.01       0.00       0.00      0.000
6:34am            182          2          3         37         72       73.6       40.1      29.39       39.9        497       2072       -636      -0.99       0.00       0.00      0.000
6:35am            182          2          3         37         72       73.6       40.1      29.39       39.9        498       2072       -634      -0.98       0.00       0.00      0.000
6:36am            182          0          3         37         74       73.6       40.1      29.39       40.1        496       1902       -637      -0.96       0.00       0.00      0.000
6:37am            182          1          3         38         74       73.6       40.1      29.39       40.1        494       1902       -639      -0.94       0.00       0.00      0.000
6:38am            182          1          3         37         73       73.6       40.1      29.39       40.1        494       1986       -639      -0.93       0.00       0.00      0.000
6:39am            182          1          3         37         73       73.6       40.1      29.39       40.1        492       1986       -641      -0.91       0.00       0.00      0.000
6:40am            182          2          3         37         73       73.6       40.1      29.39       39.9        492       1986       -641      -0.90       0.00       0.00      0.000
6:41am            182          1          2         37         73       73.6       40.0      29.39       40.0        490       1986       -650      -0.98       0.00       0.00      0.000
6:42am            182          0          2         37         73       73.6       40.0      29.39       40.0        489       1986       -652      -0.97       0.00       0.00      0.000
6:43am            318          3          4         37         73       73.6       40.0      29.39       38.4        489       1986       -652      -0.95       0.00       0.00      0.000
6:44am            320          0          4         37         73       73.6       40.0      29.39       40.0        489       1986       -652      -0.93       0.00       0.00      0.000
6:45am            320          2          4         37         73       73.6       40.0      29.40       39.8        488       1986       -653      -0.92       0.00       0.00      0.000
6:46am            320          1          2         38         73       73.6       40.0      29.39       40.0        489       1986       -652      -0.90       0.00       0.00      0.000
6:47am            320          2          2         37         74       73.6       40.0      29.40       39.8        488       1901       -653      -0.89       0.00       0.00      0.000
6:48am            320          0          2         37         74       73.6       40.0      29.40       40.0        488       1901       -653      -0.87       0.00       0.00      0.000
6:49am            320          1          2         37         74       73.5       40.0      29.40       40.0        488       1901       -654      -0.86       0.00       0.00      0.000
6:50am            243          2          2         37         73       73.5       40.0      29.40       39.8        488       1986       -653      -0.85       0.00       0.00      0.000
6:51am            256          0          3         37         73       73.5       39.9      29.40       39.9        487       1985       -662      -0.93       0.00       0.00      0.000
6:52am            283          3          3         37         73       73.5       39.9      29.40       38.3        487       1985       -662      -0.92       0.00       0.00      0.000
6:53am            283          0          3         37         73       73.5       39.9      29.40       39.9        486       1985       -663      -0.90       0.00       0.00      0.000
6:54am            283          2          3         37         73       73.5       39.9      29.40       39.7        486       1985       -663      -0.89       0.00       0.00      0.000
6:55am            283          2          3         37         72       73.5       39.9      29.40       39.7        486       2070       -663      -0.87       0.00       0.00      0.000
6:56am            341          2          3         37         73       73.5       39.9      29.40       39.7        485       1985       -664      -0.86       0.00       0.00      0.000
6:57am            341          2          3         37         73       73.5       40.0      29.40       39.8        485       1986       -657      -0.74       0.00       0.00      0.000
6:58am            257          2          3         37         73       73.5       40.0      29.40       39.8        485       1986       -657      -0.73       0.00       0.00      0.000
6:59am             29          2          3         37         73       73.5       40.0      29.40       39.8        485       1986       -657      -0.72       0.00       0.00      0.000
7:00am             28          3          3         37         73       73.5       40.1      29.40       38.5        485       1986       -651      -0.61       0.00       0.00      0.000
7:01am            293          4          4         37         73       73.5       40.0      29.40       37.3        485       1986       -657      -0.70       0.00       0.00      0.000
7:02am            293          1          4         37         73       73.5       40.1      29.40       40.1        484       1986       -652      -0.59       0.00       0.00      0.000
7:03am            293          1          4         37         73       73.5       40.2      29.40       40.2        483       1987       -646      -0.48       0.00       0.00      0.000
7:04am            276          2          4         37         73       73.5       40.2      29.40       40.0        483       1987       -646      -0.47       0.00       0.00      0.000
7:05am            154          2          4         37         73       73.5       40.3      29.40       40.1        483       1988       -639      -0.36       0.00       0.00      0.000
7:06am            162          0          2         37         73       73.5       40.3      29.40       40.3        480       1988       -643      -0.36       0.00       0.00      0.000
7:07am            164          2          3         38         73       73.5       40.4      29.40       40.2        480       1989       -636      -0.25       0.00       0.00      0.000
7:08am             12          1          4         37         73       73.5       40.4      29.40       40.4        480       1989       -636      -0.25       0.00       0.00      0.000
7:09am             12          2          4         37         73       73.5       40.5      29.40       40.3        482       1990       -627      -0.14       0.00       0.00      0.000
7:10am             12          0          4         37         73       73.5       40.6      29.40       40.6        481       1991       -621      -0.04       0.00       0.00      0.000
7:11am            319          1          3         37         73       73.5       40.6      29.40       40.6        481       1991       -621      -0.04       0.00       0.00      0.000
7:12am            319          1          4         37         73       73.5       40.7      29.40       40.7        480       1992       -615       0.06       0.00       0.00      0.000
7:13am            280          4          4         37         73       73.5       40.8      29.40       38.2        481       1993       -607       0.16       0.00       0.00      0.000
7:14am            310          2          4         37         73       73.5       40.8      29.41       40.6        478       1993       -611       0.15       0.00       0.00      0.000
7:15am            276          1          4         37         72       73.5       40.9      29.41       40.9        477       2079       -605       0.25       0.00       0.00      0.000
7:16am            125          1          3         37         72       73.5       41.0      29.41       41.0        476       2080       -599       0.35       0.00       0.00      0.000
7:17am            127          1          3         37         72       73.5       41.1      29.41       41.1        476       2081       -593       0.44       0.00       0.00      0.000
7:18am            127          1          3         37         72       73.5       41.2      29.41       41.2        476       2082       -587       0.53       0.00       0.00      0.000
7:19am            127          1          3         37         72       73.5       41.2      29.41       41.2        475       2082       -588       0.52       0.00       0.00      0.000
7:20am            295          4          5         37         72       73.5       41.2      29.41       38.7        475       2082       -588       0.51       0.00       0.00      0.000
7:21am            141          2          7         37         71       73.5       41.3      29.41       41.2        475       2170       -581       0.60       0.00       0.00      0.000
7:22am            318          3          7         37         70       73.5       41.4      29.41       39.9        473       2259       -576       0.69       0.00       0.00      0.000
7:23am            237          3          7         37         70       73.5       41.5      29.41       40.1        474       2260       -568       0.78       0.00       0.00      0.000
7:24am            353          2          7         37         69       73.5       41.5      29.41       41.4        474       2349       -568       0.77       0.00       0.00      0.000
7:25am            283          1          7         37         70       73.5       41.6      29.41       41.6        474       2261       -561       0.85       0.00       0.00      0.000
7:26am            346          3          4         37         70       73.5       41.8      29.41       40.4        474       2263       -548       1.04       0.00       0.00      0.000
7:27am            259          4          4         37         69       73.5       41.8      29.41       39.4        473       2352       -549       1.02       0.00       0.00      0.000
7:28am            339          2          6         37         69       73.5       41.9      29.41       41.9        473       2353       -542       1.10       0.00       0.00      0.000
7:29am            339          1          6         37         69       73.5       42.0      29.41       42.0        472       2354       -536       1.19       0.00       0.00      0.000
7:30am            333          3          6         37         70       73.5       42.0      29.41       40.6        473       2265       -535       1.17       0.00       0.00      0.000
7:31am            335          0          3         37         70       73.5       42.1      29.41       42.1        473       2266       -528       1.25       0.00       0.00      0.000
7:32am            329          2          5         37         70       73.5       42.2      29.41       42.2        472       2267       -523       1.32       0.00       0.00      0.000
7:33am            270          3          5         37         70       73.5       42.3      29.41       41.0        472       2268       -516       1.40       0.00       0.00      0.000
7:34am            189          1          5         37         69       73.5       42.4      29.41       42.4        473       2359       -508       1.48       0.00       0.00      0.000
7:35am            277          2          5         37         69       73.5       42.5      29.41       42.5        472       2360       -502       1.55       0.00       0.00      0.000
7:36am            327          2          6         37         70       73.5       42.6      29.41       42.6        472       2271       -495       1.63       0.00       0.00      0.000
7:37am            332          2          6         37         69       73.5       42.7      29.41       42.7        472       2362       -489       1.70       0.00       0.00      0.000
7:38am            277          2          6         37         69       73.5       42.7      29.41       42.7        471       2362       -490       1.67       0.00       0.00      0.000
7:39am            274          1          6         37         68       73.5       42.7      29.41       42.7        471       2453       -490       1.64       0.00       0.00      0.000
7:40am             98          3          6         37         68       73.5       42.7      29.41       41.4        471       2453       -490       1.62       0.00       0.00      0.000
7:41am            339          2          7         37         68       73.5       42.8      29.41       42.8        471       2454       -483       1.69       0.00       0.00      0.000
7:42am            356          2          7         37         68       73.5       42.9      29.41       42.9        471       2455       -476       1.76       0.00       0.00      0.000
7:43am            356          0          7         37         67       73.5       42.9      29.41       42.9        471       2547       -476       1.73       0.00       0.00      0.000
7:44am            355          0          7         37         67       73.5       43.0      29.41       43.0        471       2548       -469       1.80       0.00       0.00      0.000
7:45am            263          5          7         37         68       73.5       43.1      29.42       40.1        470       2457       -464       1.87       0.00       0.00      0.000
7:46am            335          2          9         37         68       73.3       43.2      29.41       43.2        471       2458       -456       1.94       0.00       0.00      0.000
7:47am            347          2          9         37         68       73.3       43.2      29.41       43.2        471       2458       -456       1.91       0.00       0.00      0.000
7:48am            193          4          9         37         68       73.3       43.3      29.41       41.1        471       2459       -449       1.97       0.00       0.00      0.000
7:49am              9          1          9         37         67       73.3       43.3      29.41       43.3        471       2552       -449       1.94       0.00       0.00      0.000
7:50am            167          2          9         37         68       73.3       43.3      29.41       43.3        471       2459       -449       1.91       0.00       0.00      0.000
7:51am            167          2          2         37         68       73.3       43.5      29.41       43.5        471       2461       -435       2.08       0.00       0.00      0.000
7:52am            167          1          3         37         67       73.3       43.5      29.41       43.5        471       2554       -435       2.04       0.00       0.00      0.000
7:53am            333          3          4         37         67       73.3       43.6      29.41       42.4        471       2555       -428       2.11       0.00       0.00      0.000
7:54am             55          4          6         37         67       73.3       43.6      29.42       41.5        470       2555       -430       2.07       0.00       0.00      0.000
7:55am            283          4          6         37         67       73.3       43.7      29.42       41.6        469       2556       -424       2.14       0.00       0.00      0.000
7:56am            283          0          4         37         67       73.3       43.8      29.42       43.8        470       2557       -416       2.20       0.00       0.00      0.000
7:57am            327          3          4         37         68       73.3       43.8      29.42       42.7        468       2465       -418       2.16       0.00       0.00      0.000
7:58am            219          7          7         37         66       73.3       43.9      29.42       39.8        468       2652       -411       2.23       0.00       0.00      0.000
7:59am            360          2          7         37         66       73.3       43.9      29.42       43.9        469       2652       -410       2.19       0.00       0.00      0.000
8:00am            185          1          7         37         66       73.3       43.9      29.42       43.9        467       2652       -413       2.15       0.00       0.00      0.000
8:01am            185          2          2         37         66       73.3       44.0      29.42       44.0        466       2653       -407       2.22       0.00       0.00      0.000
8:02am            247          2          5         37         66       73.3       44.0      29.42       44.0        466       2653       -407       2.18       0.00       0.00      0.000
8:03am            288          2          5         37         66       73.3       44.0      29.42       44.0        464       2653       -410       2.14       0.00       0.00      0.000
8:04am            264          1          5         37         66       73.3       44.1      29.42       44.1        464       2654       -404       2.21       0.00       0.00      0.000
8:05am            130          4          5         37         66       73.3       44.1      29.43       42.1        460       2654       -408       2.17       0.00       0.00      0.000
8:06am             16          0          5         37         66       73.3       44.2      29.43       44.2        461       2656       -400       2.24       0.00       0.00      0.000
8:07am            319          4          6         37         65       73.3       44.1      29.42       42.1        462       2750       -406       2.10       0.00       0.00      0.000
8:08am            282          2          6         37         66       73.3       44.2      29.42       44.2        464       2656       -396       2.16       0.00       0.00      0.000
8:09am            159          1          6         37         65       73.3       44.2      29.42       44.2        464       2751       -397       2.13       0.00       0.00      0.000
8:10am            300          0          6         37         65       73.3       44.3      29.42       44.3        463       2752       -391       2.19       0.00       0.00      0.000
8:11am            300          1          2         37         66       73.3       44.4      29.42       44.4        462       2658       -385       2.25       0.00       0.00      0.000
8:12am            288          3          3         37         67       73.3       44.5      29.42       43.5        462       2565       -379       2.32       0.00       0.00      0.000
8:13am            279          1          3         37         66       73.3       44.5      29.43       44.5        461       2659       -380       2.28       0.00       0.00      0.000
8:14am            300          1          4         37         67       73.3       44.6      29.43       44.6        461       2566       -373       2.34       0.00       0.00      0.000
8:15am             37          1          4         37         66       73.3       44.8      29.43       44.8        459       2663       -362       2.50       0.00       0.00      0.000
8:16am             36          0          2         37         65       73.3       44.8      29.43       44.8        459       2758       -362       2.46       0.00       0.00      0.000
8:17am             62          4          4         37         66       73.3       44.9      29.43       43.0        461       2664       -353       2.52       0.00       0.00      0.000
8:18am            341          2          4         37         66       73.3       45.0      29.43       45.0        459       2665       -348       2.57       0.00       0.00      0.000
8:19am            343          1          4         37         66       73.3       45.1      29.43       45.1        461       2666       -339       2.63       0.00       0.00      0.000
8:20am            347          2          4         37         66       73.3       45.3      29.43       45.3        461       2669       -326       2.79       0.00       0.00      0.000
8:21am            336          4          4         37         64       73.3       45.3      29.43       43.4        460       2861       -327       2.74       0.00       0.00      0.000
8:22am            349          3          5         37         64       73.3       45.3      29.43       44.4        460       2861       -327       2.70       0.00       0.00      0.000
8:23am             43          8          9         37         63       73.3       45.4      29.42       41.2        464       2961       -314       2.75       0.00       0.00      0.000
8:24am              7          5          9         37         63       73.3       45.4      29.42       42.8        463       2961       -316       2.70       0.00       0.00      0.000
8:25am            181          2          9         37         62       73.3       45.4      29.42       45.4        462       3061       -318       2.66       0.00       0.00      0.000
8:26am            356          2          6         37         63       73.3       45.4      29.43       45.4        461       2961       -319       2.62       0.00       0.00      0.000
8:27am            300          3          6         37         63       73.3       45.4      29.42       44.5        462       2961       -318       2.57       0.00       0.00      0.000
8:28am            347          3          6         37         63       73.3       45.4      29.42       44.5        462       2961       -318       2.53       0.00       0.00      0.000
8:29am            347          2          7         37         62       73.3       45.4      29.43       45.4        459       3061       -321       2.49       0.00       0.00      0.000
8:30am            210          3          7         37         62       73.3       45.4      29.43       44.5        460       3061       -320       2.45       0.00       0.00      0.000
8:31am             14          3          4         37         62       73.3       45.4      29.43       44.5        461       3061       -319       2.41       0.00       0.00      0.000
8:32am             90          2          5         37         63       73.3       45.4      29.42       45.4        462       2961       -318       2.37       0.00       0.00      0.000
8:33am             14          3          8         37         62       73.3       45.4      29.43       44.5        461       3061       -319       2.33       0.00       0.00      0.000
8:34am            322          3          8         37         63       73.3       45.4      29.42       44.5        462       2961       -318       2.29       0.00       0.00      0.000
8:35am            336          1          8         37         62       73.3       45.4      29.42       45.4        462       3061       -318       2.25       0.00       0.00      0.000
8:36am            285          2          4         37         63       73.3       45.5      29.43       45.5        459       2962       -314       2.31       0.00       0.00      0.000
8:37am            358          4          4         37         63       73.3       45.5      29.43       43.7        458       2962       -315       2.27       0.00       0.00      0.000
8:38am             16          2          7         37         62       73.3       45.6      29.43       45.6        458       3063       -309       2.34       0.00       0.00      0.000
8:39am             14          2          7         37         63       73.3       45.6      29.43       45.6        460       2963       -306       2.30       0.00       0.00      0.000
8:40am             16          4          7         37         62       73.3       45.6      29.43       43.8        458       3063       -309       2.26       0.00       0.00      0.000
8:41am            314          3          4         37         62       73.3       45.7      29.43       44.8        457       3065       -303       2.32       0.00       0.00      0.000
8:42am            339          3          4         37         63       73.1       45.7      29.43       44.8        457       2965       -303       2.28       0.00       0.00      0.000
8:43am            258          3          4         37         63       73.1       45.8      29.43       44.9        457       2966       -296       2.34       0.00       0.00      0.000
8:44am            226          3          5         37         63       73.1       45.8      29.43       44.9        457       2966       -296       2.30       0.00       0.00      0.000
8:45am            300          3          5         37         63       73.1       45.9      29.43       45.0        456       2967       -291       2.37       0.00       0.00      0.000
8:46am             71          2          7         37         62       73.1       45.9      29.43       45.9        457       3067       -289       2.33       0.00       0.00      0.000
8:47am            310          4          7         37         62       73.1       45.9      29.43       44.1        457       3067       -289       2.29       0.00       0.00      0.000
8:48am            358          6          7         37         62       73.1       46.0      29.43       42.9        457       3069       -283       2.35       0.00       0.00      0.000
8:49am            343          3          7         37         62       73.1       45.9      29.43       45.0        456       3067       -291       2.21       0.00       0.00      0.000
8:50am            340          4          7         37         62       73.1       45.9      29.43       44.1        457       3067       -289       2.18       0.00       0.00      0.000
8:51am            332          3          4         37         63       73.1       46.0      29.43       45.2        457       2969       -283       2.24       0.00       0.00      0.000
8:52am            322          5          6         37         63       73.1       46.1      29.43       43.6        456       2970       -277       2.30       0.00       0.00      0.000
8:53am            349          6          8         37         62       73.1       46.1      29.43       43.0        456       3070       -277       2.26       0.00       0.00      0.000
8:54am            256          6          9         37         62       73.1       46.2      29.43       43.1        456       3071       -270       2.32       0.00       0.00      0.000
8:55am            300          6          9         37         62       73.1       46.2      29.43       43.1        456       3071       -270       2.29       0.00       0.00      0.000
8:56am            357          2          7         37         62       73.1       46.2      29.43       46.2        457       3071       -269       2.25       0.00       0.00      0.000
8:57am            318          9          9         37         62       73.1       46.2      29.43       41.7        456       3071       -270       2.21       0.00       0.00      0.000
8:58am            335          1          9         37         62       73.1       46.2      29.43       46.2        456       3071       -270       2.17       0.00       0.00      0.000
8:59am            117          6          9         37         62       73.1       46.3      29.43       43.3        456       3073       -264       2.23       0.00       0.00      0.000
9:00am             31          3          9         37         62       73.1       46.4      29.43       45.6        456       3074       -257       2.30       0.00       0.00      0.000
9:01am            348          2          8         37         62       73.1       46.4      29.43       46.4        455       3074       -258       2.26       0.00       0.00      0.000
9:02am            360          7         11         37         60       73.1       46.4      29.43       42.9        456       3279       -257       2.22       0.00       0.00      0.000
9:03am            229          2         11         37         60       73.1       46.4      29.43       46.4        456       3279       -257       2.19       0.00       0.00      0.000
9:04am             50          3         11         37         61       73.1       46.3      29.43       45.5        455       3174       -265       2.05       0.00       0.00      0.000
9:05am             29          3         11         37         62       73.1       46.4      29.43       45.6        456       3074       -257       2.12       0.00       0.00      0.000
9:06am            346          4          4         37         61       73.1       46.5      29.43       44.8        455       3177       -251       2.18       0.00       0.00      0.000
9:07am            345          1          5         37         61       73.1       46.7      29.43       46.7        455       3180       -238       2.34       0.00       0.00      0.000
9:08am             48          3          6         37         61       73.1       46.7      29.43       45.9        455       3180       -238       2.30       0.00       0.00      0.000
9:09am            283          1          6         37         60       73.1       46.7      29.43       46.7        455       3283       -238       2.27       0.00       0.00      0.000
9:10am             16          4          6         37         61       73.1       46.8      29.43       45.2        455       3181       -231       2.33       0.00       0.00      0.000
9:11am             29          3          7         37         60       73.1       46.9      29.43       46.2        455       3286       -224       2.39       0.00       0.00      0.000
9:12am             95          1          7         37         60       73.1       46.9      29.43       46.9        454       3286       -225       2.35       0.00       0.00      0.000
9:13am             89          2          7         37         60       73.1       47.0      29.43       47.0        453       3287       -220       2.41       0.00       0.00      0.000
9:14am             70          2          7         37         60       73.1       47.1      29.43       47.1        453       3289       -213       2.46       0.00       0.00      0.000
9:15am            238          2          7         37         60       73.1       47.2      29.43       47.2        455       3290       -204       2.52       0.00       0.00      0.000
9:16am              8          2          3         37         60       73.1       47.2      29.43       47.2        455       3290       -204       2.48       0.00       0.00      0.000
9:17am            264          3          5         37         60       73.1       47.2      29.43       46.5        454       3290       -205       2.44       0.00       0.00      0.000
9:18am            224          3          5         37         61       73.1       47.3      29.43       46.6        455       3188       -197       2.50       0.00       0.00      0.000
9:19am            290          1          5         37         61       73.1       47.4      29.43       47.4        455       3190       -190       2.56       0.00       0.00      0.000
9:20am            310          5          5         37         61       73.1       47.5      29.43       45.3        455       3191       -184       2.62       0.00       0.00      0.000
9:21am             17          4          7         37         61       73.1       47.6      29.43       46.1        454       3192       -178       2.67       0.00       0.00      0.000
9:22am            349          3          7         37         60       73.1       47.7      29.43       47.1        454       3297       -171       2.73       0.00       0.00      0.000
9:23am            249          3          7         37         59       73.1       47.7      29.43       47.1        454       3403       -171       2.68       0.00       0.00      0.000
9:24am             14          2          8         37         59       73.1       47.7      29.43       47.7        454       3403       -171       2.64       0.00       0.00      0.000
9:25am             12          3          8         37         59       73.1       47.6      29.43       47.0        454       3401       -178       2.49       0.00       0.00      0.000
9:26am            349          3          6         37         59       73.1       47.7      29.43       47.1        454       3403       -171       2.55       0.00       0.00      0.000
9:27am             10          8          8         37         58       73.1       47.5      29.43       43.7        454       3506       -185       2.31       0.00       0.00      0.000
9:28am             70          1          8         37         58       73.1       47.5      29.43       47.5        453       3506       -186       2.27       0.00       0.00      0.000
9:29am            280          3          8         37         59       73.1       47.4      29.43       46.7        453       3398       -193       2.14       0.00       0.00      0.000
9:30am            316          3          8         37         59       73.1       47.4      29.43       46.7        453       3398       -193       2.10       0.00       0.00      0.000
9:31am            247          0          3         37         60       73.1       47.4      29.43       47.4        453       3293       -193       2.07       0.00       0.00      0.000
9:32am            294          2          3         37         60       73.1       47.4      29.43       47.4        453       3293       -193       2.04       0.00       0.00      0.000
9:33am             29          7          7         39         60       73.1       47.6      29.43       44.3        454       3296       -178       2.20       0.00       0.00      0.000
9:34am             11          2          7         37         59       73.1       47.7      29.43       47.7        454       3403       -171       2.26       0.00       0.00      0.000
9:35am            287          6          7         37         60       73.1       47.8      29.43       45.0        453       3299       -166       2.32       0.00       0.00      0.000
9:36am              3          4          7         37         60       73.1       47.9      29.44       46.4        450       3300       -164       2.38       0.00       0.00      0.000
9:37am            260          2          7         37         60       73.1       48.1      29.44       48.1        450       3303       -150       2.54       0.00       0.00      0.000
9:38am             89          6          7         37         59       73.1       48.1      29.44       45.4        451       3409       -149       2.50       0.00       0.00      0.000
9:39am             48          8          8         37         58       73.1       48.1      29.43       44.5        452       3516       -148       2.46       0.00       0.00      0.000
9:40am            310          2          8         37         58       73.1       48.1      29.43       48.1        453       3516       -147       2.42       0.00       0.00      0.000
9:41am            252          2          5         37         58       73.1       48.1      29.44       48.1        451       3516       -149       2.38       0.00       0.00      0.000
9:42am            237          2          5         37         59       73.1       48.0      29.43       48.0        453       3407       -152       2.24       0.00       0.00      0.000
9:43am            213          4          5         37         58       73.1       48.0      29.43       46.6        453       3514       -153       2.20       0.00       0.00      0.000
9:44am            214          0          5         37         58       73.1       48.0      29.43       48.0        454       3514       -151       2.17       0.00       0.00      0.000
9:45am            341          4          5         37         58       73.1       48.1      29.43       46.7        453       3516       -147       2.23       0.00       0.00      0.000
9:46am            331          8          8         37         59       73.1       48.3      29.43       44.7        454       3412       -131       2.39       0.00       0.00      0.000
9:47am            300          2          8         37         59       73.1       48.3      29.43       48.3        453       3412       -133       2.35       0.00       0.00      0.000
9:48am            310          1          8         37         57       73.1       48.5      29.43       48.5        453       3631       -119       2.51       0.00       0.00      0.000
9:49am             43          5          8         37         58       73.1       48.5      29.43       46.5        453       3522       -119       2.47       0.00       0.00      0.000
9:50am             91          3          8         37         58       73.1       48.7      29.43       48.2        454       3525       -104       2.63       0.00       0.00      0.000
9:51am            329          3          6         37         57       73.1       48.7      29.43       48.2        453       3634       -106       2.59       0.00       0.00      0.000
9:52am            320          8          9         37         57       73.1       48.7      29.43       45.2        453       3634       -106       2.54       0.00       0.00      0.000
9:53am             27          3          9         37         57       73.1       48.7      29.43       48.2        453       3634       -106       2.50       0.00       0.00      0.000
9:54am            345          2          9         37         58       73.1       48.7      29.44       48.7        451       3525       -109       2.46       0.00       0.00      0.000
9:55am            322          4          9         37         58       73.1       48.7      29.43       47.4        452       3525       -107       2.42       0.00       0.00      0.000
9:56am            310          3          4         37         57       73.1       48.6      29.43       48.1        452       3632       -114       2.28       0.00       0.00      0.000
9:57am             66          1          7         37         57       73.1       48.5      29.43       48.5        452       3631       -121       2.14       0.00       0.00      0.000
9:58am            300          1          7         37         57       73.1       48.5      29.44       48.5        449       3631       -124       2.11       0.00       0.00      0.000
9:59am            352          2          7         37         57       73.1       48.4      29.43       48.4        452       3629       -128       1.97       0.00       0.00      0.000
10:00am           352          1          7         37         57       73.1       48.3      29.43       48.3        453       3627       -133       1.84       0.00       0.00      0.000
10:01am           354          0          3         37         57       73.1       48.3      29.44       48.3        451       3627       -135       1.81       0.00       0.00      0.000
10:02am            42          2          3         37         57       73.1       48.3      29.43       48.3        453       3627       -133       1.78       0.00       0.00      0.000
10:03am            42          1          3         37         57       73.1       48.4      29.43       48.4        453       3629       -126       1.85       0.00       0.00      0.000
10:04am           310          3          5         37         57       73.1       48.4      29.43       47.9        454       3629       -124       1.82       0.00       0.00      0.000
10:05am           347          3          5         37         57       73.1       48.6      29.43       48.1        453       3632       -112       1.99       0.00       0.00      0.000
10:06am            11          2          5         37         58       73.1       48.8      29.43       48.8        454       3526        -97       2.15       0.00       0.00      0.000
10:07am            46          7          7         37         56       73.1       49.0      29.43       46.0        453       3749        -86       2.32       0.00       0.00      0.000
10:08am           346          2          7         37         55       73.1       49.1      29.43       49.1        452       3864        -80       2.38       0.00       0.00      0.000
10:09am            11          1          7         37         55       73.1       49.3      29.44       49.3        451       3867        -68       2.54       0.00       0.00      0.000
10:10am            26          3          7         37         54       73.1       49.4      29.44       49.0        451       3983        -61       2.60       0.00       0.00      0.000
10:11am           268          3          5         37         54       73.1       49.5      29.44       49.1        451       3985        -55       2.65       0.00       0.00      0.000
10:12am            33          3          5         37         56       73.1       49.6      29.44       49.2        448       3759        -51       2.71       0.00       0.00      0.000
10:13am           300          2          7         37         53       73.1       49.7      29.44       49.7        450       4105        -42       2.76       0.00       0.00      0.000
10:14am            50          5          7         37         52       73.1       49.8      29.44       48.0        446       4225        -40       2.82       0.00       0.00      0.000
10:15am           321          4          7         37         52       73.1       49.8      29.44       48.6        449       4225        -37       2.77       0.00       0.00      0.000
10:16am           320          5          7         37         52       73.1       49.8      29.44       48.0        451       4225        -35       2.72       0.00       0.00      0.000
10:17am            95          6          7         37         53       73.1       49.7      29.44       47.3        449       4105        -44       2.58       0.00       0.00      0.000
10:18am           300          6         10         37         51       73.1       49.5      29.44       47.1        448       4340        -58       2.34       0.00       0.00      0.000
10:19am           330          6         10         37         51       73.1       49.3      29.43       46.8        452       4337        -67       2.10       0.00       0.00      0.000
10:20am           169          2         10         37         51       73.1       49.2      29.44       49.2        450       4335        -76       1.97       0.00       0.00      0.000
10:21am           229          6         10         37         52       73.1       49.1      29.43       46.6        453       4212        -79       1.84       0.00       0.00      0.000
10:22am            84          5         10         37         51       73.1       48.9      29.44       46.9        450       4329        -96       1.61       0.00       0.00      0.000
10:23am           310          2         10         37         52       73.1       48.8      29.44       48.8        451       4207       -102       1.48       0.00       0.00      0.000
10:24am           318          3         10         37         52       73.1       48.8      29.44       48.3        451       4207       -102       1.46       0.00       0.00      0.000
10:25am           264          3         10         37         52       73.1       48.9      29.44       48.4        451       4209        -95       1.53       0.00       0.00      0.000
10:26am            57          3          6         37         52       73.1       48.9      29.43       48.4        452       4209        -94       1.51       0.00       0.00      0.000
10:27am           264          3          6         37         54       73.1       49.0      29.44       48.5        450       3976        -89       1.58       0.00       0.00      0.000
10:28am           328          3          6         37         53       73.1       49.1      29.44       48.7        449       4094        -84       1.66       0.00       0.00      0.000
10:29am           327          2          6         37         52       73.1       49.2      29.44       49.2        448       4214        -78       1.73       0.00       0.00      0.000
10:30am           281          3          6         37         54       73.1       49.3      29.43       48.9        452       3981        -67       1.80       0.00       0.00      0.000
10:31am           291          2          8         37         51       73.1       49.5      29.44       49.5        450       4340        -56       1.97       0.00       0.00      0.000
10:32am           216          6          8         37         52       73.1       49.6      29.43       47.2        453       4222        -46       2.04       0.00       0.00      0.000
10:33am            77          6          8         37         51       73.1       49.6      29.43       47.2        453       4342        -46       2.00       0.00       0.00      0.000
10:34am           264          7          8         37         50       73.1       49.8      29.44       46.9        450       4469        -36       2.17       0.00       0.00      0.000
10:35am           300          2          8         37         50       73.1       49.9      29.44       49.9        447       4471        -32       2.23       0.00       0.00      0.000
10:36am            33          7          9         37         52       73.1       50.0      29.44       47.2        448       4229        -25       2.29       0.00       0.00      0.000
10:37am           234          2          9         37         51       73.1       50.1      29.44       50.1        451       4352        -15       2.35       0.00       0.00      0.000
10:38am           310          2          9         37         51       73.1       50.3      29.43       50.3        452       4355          0       2.51       0.00       0.00      0.000
10:39am           286          1          9         37         51       73.1       50.4      29.44       50.4        451       4357          6       2.57       0.00       0.00      0.000
10:40am           197          3          9         37         51       73.1       50.6      29.43       50.4        453       4361         22       2.72       0.00       0.00      0.000
10:41am            25          5          7         37         49       73.3       50.7      29.43       49.0        453       4612         28       2.78       0.00       0.00      0.000
10:42am            19          3          7         37         49       73.3       50.8      29.43       50.6        454       4614         37       2.83       0.00       0.00      0.000
10:43am           347          4          7         37         49       73.3       50.9      29.43       49.9        455       4616         45       2.89       0.00       0.00      0.000
10:44am            27          3          7         37         50       73.3       51.0      29.43       50.8        454       4492         50       2.94       0.00       0.00      0.000
10:45am            68          2          7         37         52       73.3       51.1      29.43       51.1        454       4249         57       2.99       0.00       0.00      0.000
10:46am            17          8          9         37         50       73.3       51.1      29.43       48.1        455       4494         58       2.94       0.00       0.00      0.000
10:47am           265          4          9         37         48       73.3       51.0      29.43       50.0        455       4745         51       2.79       0.00       0.00      0.000
10:48am           204          2          9         37         49       73.3       50.9      29.43       50.9        455       4616         45       2.65       0.00       0.00      0.000
10:49am           318          6          9         37         49       73.3       51.0      29.43       48.9        457       4618         54       2.70       0.00       0.00      0.000
10:50am           271          5          9         37         50       73.3       51.0      29.43       49.4        456       4492         53       2.66       0.00       0.00      0.000
10:51am           353          7          7         37         49       73.3       51.0      29.43       48.4        457       4618         54       2.61       0.00       0.00      0.000
10:52am           349          2          8         37         47       73.3       51.0      29.43       51.0        456       4876         53       2.57       0.00       0.00      0.000
10:53am            58          2         10         37         48       73.3       50.9      29.43       50.9        456       4743         46       2.43       0.00       0.00      0.000
10:54am            31          6         10         37         48       73.3       50.8      29.43       48.6        457       4741         40       2.29       0.00       0.00      0.000
10:55am           206          7         10         37         51       73.3       50.8      29.43       48.2        456       4365         39       2.25       0.00       0.00      0.000
10:56am           255          2          8         37         49       73.3       50.8      29.43       50.8        456       4614         39       2.21       0.00       0.00      0.000
10:57am            21          3          8         37         50       73.3       51.0      29.43       50.8        456       4492         53       2.38       0.00       0.00      0.000
10:58am           341          1          8         37         51       73.3       51.1      29.43       51.1        456       4371         59       2.44       0.00       0.00      0.000
10:59am            81          3          8         37         51       73.3       51.3      29.43       51.1        456       4374         73       2.59       0.00       0.00      0.000
11:00am           289          5          8         37         50       73.3       51.5      29.43       50.0        456       4502         86       2.75       0.00       0.00      0.000
11:01am           300          0          5         37         50       73.3       51.7      29.43       51.7        456       4506         99       2.90       0.00       0.00      0.000
11:02am           112          2          5         37         48       73.3       51.8      29.43       51.8        456       4762        106       2.95       0.00       0.00      0.000
11:03am            35          2          8         37         50       73.3       51.9      29.43       51.9        456       4510        113       3.00       0.00       0.00      0.000
11:04am           108          4          8         37         48       73.3       52.1      29.43       51.3        457       4768        127       3.15       0.00       0.00      0.000
11:05am            54          8          9         37         47       73.3       52.2      29.43       49.4        457       4901        134       3.20       0.00       0.00      0.000
11:06am           314          2          8         37         47       73.3       52.2      29.43       52.2        456       4901        133       3.14       0.00       0.00      0.000
11:07am            71          2          8         37         49       73.3       52.2      29.43       52.2        456       4642        133       3.09       0.00       0.00      0.000
11:08am           207          5          8         37         47       73.3       52.2      29.43       50.8        456       4901        133       3.04       0.00       0.00      0.000
11:09am            87          2          8         37         47       73.3       52.3      29.43       52.3        456       4903        139       3.09       0.00       0.00      0.000
11:10am           321          3          8         37         49       73.3       52.3      29.43       52.3        456       4644        139       3.04       0.00       0.00      0.000
11:11am           335          4         10         37         46       73.3       52.2      29.43       51.4        457       5034        134       2.89       0.00       0.00      0.000
11:12am           212          2         10         37         46       73.3       52.2      29.43       52.2        457       5034        134       2.84       0.00       0.00      0.000
11:13am           222          3         10         37         46       73.3       52.1      29.43       52.1        457       5032        127       2.70       0.00       0.00      0.000
11:14am           266          1         10         37         46       73.3       52.1      29.43       52.1        456       5032        126       2.65       0.00       0.00      0.000
11:15am           347          1         10         37         46       73.3       52.1      29.43       52.1        457       5032        127       2.61       0.00       0.00      0.000
11:16am            17          4          7         37         48       73.3       52.2      29.43       51.4        456       4770        133       2.66       0.00       0.00      0.000
11:17am            81          2          7         37         48       73.3       52.3      29.43       52.3        456       4772        139       2.72       0.00       0.00      0.000
11:18am           323          1          8         37         47       73.3       52.3      29.43       52.3        456       4903        139       2.67       0.00       0.00      0.000
11:19am            21          5          8         37         47       73.3       52.3      29.43       50.9        457       4903        140       2.63       0.00       0.00      0.000
11:20am            13          5          9         37         46       73.3       52.3      29.43       50.9        457       5037        140       2.59       0.00       0.00      0.000
11:21am           328          8          8         37         47       73.3       52.3      29.43       49.6        456       4903        139       2.54       0.00       0.00      0.000
11:22am             5          4          9         37         46       73.3       52.1      29.43       51.3        456       5032        126       2.30       0.00       0.00      0.000
11:23am           344          1          9         37         46       73.3       52.0      29.43       52.0        457       5030        120       2.17       0.00       0.00      0.000
11:24am            19          4          9         37         48       73.3       51.8      29.43       50.9        457       4762        107       1.93       0.00       0.00      0.000
11:25am            75          2          9         37         47       73.3       51.7      29.43       51.7        458       4891        102       1.80       0.00       0.00      0.000
11:26am            73          4          5         37         47       73.3       51.7      29.43       50.8        459       4891        103       1.77       0.00       0.00      0.000
11:27am            84          3          7         37         49       73.3       51.7      29.43       51.6        459       4632        103       1.74       0.00       0.00      0.000
11:28am           341          3          7         37         48       73.3       51.8      29.43       51.7        458       4762        108       1.81       0.00       0.00      0.000
11:29am           341          1          7         37         48       73.3       51.8      29.43       51.8        457       4762        107       1.79       0.00       0.00      0.000
11:30am           341          4          7         37         49       73.3       51.9      29.43       51.1        457       4636        114       1.85       0.00       0.00      0.000
11:31am           300          3          9         37         49       73.3       52.0      29.43       51.9        457       4638        120       1.92       0.00       0.00      0.000
11:32am            10          3          9         37         47       73.3       52.0      29.43       51.9        456       4897        119       1.89       0.00       0.00      0.000
11:33am           199          4          9         37         48       73.3       52.1      29.43       51.3        456       4768        126       1.96       0.00       0.00      0.000
11:34am           220          5          9         37         46       73.3       52.1      29.43       50.7        456       5032        126       1.93       0.00       0.00      0.000
11:35am           256          4          9         37         46       73.3       52.1      29.43       51.3        457       5032        127       1.89       0.00       0.00      0.000
11:36am           288          3          4         37         45       73.3       52.1      29.43       52.1        456       5168        126       1.86       0.00       0.00      0.000
11:37am           356          2          6         37         46       73.3       52.0      29.43       52.0        456       5030        119       1.73       0.00       0.00      0.000
11:38am           354          4          8         39         48       73.3       52.1      29.43       51.3        457       4768        127       1.80       0.00       0.00      0.000
11:39am            38          3         10         37         47       73.3       52.1      29.43       52.1        457       4899        127       1.77       0.00       0.00      0.000
11:40am           335          5         10         37         46       73.3       52.1      29.43       50.7        457       5032        127       1.74       0.00       0.00      0.000
11:41am           329          4          6         37         44       73.3       52.1      29.43       51.3        456       5307        126       1.72       0.00       0.00      0.000
11:42am           253          5          7         37         45       73.3       52.2      29.43       50.8        456       5171        133       1.79       0.00       0.00      0.000
11:43am           327          2          7         37         44       73.3       52.2      29.43       52.2        457       5309        134       1.76       0.00       0.00      0.000
11:44am           333          2          7         37         44       73.3       52.1      29.43       52.1        457       5307        127       1.63       0.00       0.00      0.000
11:45am             3          0          7         37         45       73.3       52.2      29.43       52.2        456       5171        133       1.70       0.00       0.00      0.000
11:46am            19          3          4         37         47       73.3       52.3      29.43       52.3        458       4903        142       1.77       0.00       0.00      0.000
11:47am           345          5          7         37         45       73.3       52.4      29.43       51.0        458       5175        148       1.84       0.00       0.00      0.000
11:48am           351          4          7         37         45       73.3       52.6      29.43       51.9        459       5179        163       2.01       0.00       0.00      0.000
11:49am           354          4          7         37         47       73.3       52.7      29.43       52.0        460       4912        171       2.08       0.00       0.00      0.000
11:50am            62          2          8         37         44       73.3       52.8      29.43       52.8        460       5323        177       2.14       0.00       0.00      0.000
11:51am           358          1          4         37         45       73.3       52.8      29.43       52.8        459       5184        176       2.11       0.00       0.00      0.000
11:52am           208          1          5         37         45       73.3       52.9      29.43       52.9        458       5186        182       2.17       0.00       0.00      0.000
11:53am            52          4          6         37         44       73.3       53.0      29.43       52.3        460       5328        191       2.23       0.00       0.00      0.000
11:54am           335          3          7         37         45       73.3       53.1      29.43       53.1        457       5191        194       2.29       0.00       0.00      0.000
11:55am           295          3          7         37         44       73.3       53.1      29.43       53.1        458       5330        195       2.26       0.00       0.00      0.000
11:56am           320          3          6         37         44       73.3       53.1      29.43       53.1        459       5330        196       2.22       0.00       0.00      0.000
11:57am            17          2          6         37         44       73.3       53.2      29.43       53.2        457       5332        200       2.28       0.00       0.00      0.000
11:58am            49          1          8         37         44       73.3       53.2      29.43       53.2        457       5332        200       2.24       0.00       0.00      0.000
11:59am            64          4          8         37         44       73.3       53.3      29.43       52.7        458       5334        208       2.31       0.00       0.00      0.000
12:00pm             2          2          8         37         42       73.3       53.3      29.43       53.3        457       5622        207       2.27       0.00       0.00      0.000
12:01pm            27          3          5         37         44       73.3       53.2      29.43       53.2        456       5332        199       2.13       0.00       0.00      0.000
12:02pm            25          5          7         37         44       73.3       53.2      29.43       52.0        457       5332        200       2.10       0.00       0.00      0.000
12:03pm            21          5          7         37         42       73.3       53.2      29.43       52.0        458       5619        202       2.06       0.00       0.00      0.000
12:04pm            41          7          7         37         43       73.3       53.2      29.43       51.0        458       5474        202       2.03       0.00       0.00      0.000
12:05pm           346          4          7         37         43       73.3       53.1      29.43       52.5        457       5472        194       1.90       0.00       0.00      0.000
12:06pm           300          4          5         37         43       73.3       53.1      29.43       52.5        460       5472        197       1.86       0.00       0.00      0.000
12:07pm           344          3          5         37         41       73.3       53.1      29.43       53.1        460       5765        197       1.83       0.00       0.00      0.000
12:08pm           337          7          9         37         42       73.3       53.1      29.42       50.9        463       5617        201       1.80       0.00       0.00      0.000
12:09pm           218          3          9         37         41       73.3       53.1      29.43       53.1        461       5765        198       1.77       0.00       0.00      0.000
12:10pm           310          5          9         37         42       73.3       53.1      29.43       51.9        460       5617        197       1.74       0.00       0.00      0.000
12:11pm           300          2          5         37         45       73.5       53.3      29.43       53.3        459       5195        209       1.91       0.00       0.00      0.000
12:12pm           255          5          8         37         44       73.3       53.5      29.43       52.3        461       5339        225       2.08       0.00       0.00      0.000
12:13pm           300          3          8         37         42       73.3       53.5      29.43       53.5        459       5627        223       2.05       0.00       0.00      0.000
12:14pm           356          7          9         37         41       73.3       53.5      29.42       51.4        462       5775        226       2.01       0.00       0.00      0.000
12:15pm           346          3          9         37         42       73.3       53.6      29.43       53.6        457       5629        227       2.08       0.00       0.00      0.000
12:16pm           287          4          8         37         43       73.3       53.7      29.43       53.1        459       5486        236       2.14       0.00       0.00      0.000
12:17pm           229          4          8         37         44       73.3       53.9      29.43       53.4        457       5348        247       2.31       0.00       0.00      0.000
12:18pm            41          5          8         37         40       73.3       53.9      29.42       52.8        462       5937        253       2.27       0.00       0.00      0.000
12:19pm             9          5          8         37         42       73.3       54.0      29.43       52.9        460       5639        257       2.33       0.00       0.00      0.000
12:20pm           150          2          8         37         41       73.3       54.1      29.42       54.1        464       5790        268       2.39       0.00       0.00      0.000
12:21pm           341          5          5         37         43       73.3       54.2      29.42       53.2        464       5498        276       2.45       0.00       0.00      0.000
12:22pm           314          3          7         37         41       73.3       54.3      29.42       54.3        462       5795        279       2.51       0.00       0.00      0.000
12:23pm           256          4          7         37         42       73.3       54.5      29.42       54.1        466       5651        298       2.67       0.00       0.00      0.000
12:24pm           310          3          7         37         42       73.3       54.7      29.42       54.7        465       5655        310       2.82       0.00       0.00      0.000
12:25pm           190          3          7         37         42       73.3       54.8      29.42       54.8        465       5658        317       2.88       0.00       0.00      0.000
12:26pm           310          1          4         37         43       73.3       55.0      29.42       55.0        464       5517        329       3.02       0.00       0.00      0.000
12:27pm           274          2          5         37         43       73.3       55.1      29.42       55.1        464       5519        334       3.07       0.00       0.00      0.000
12:28pm           247          3          5         37         41       73.3       55.1      29.42       55.1        463       5815        333       3.02       0.00       0.00      0.000
12:29pm           272          4          5         37         42       73.5       55.1      29.42       54.8        463       5665        333       2.97       0.00       0.00      0.000
12:30pm           196          3          9         37         40       73.5       55.2      29.42       55.2        464       5970        342       3.02       0.00       0.00      0.000
12:31pm           345          1          6         37         41       73.5       55.2      29.42       55.2        466       5817        345       2.97       0.00       0.00      0.000
12:32pm            67          1          7         37         42       73.5       55.2      29.42       55.2        466       5668        345       2.92       0.00       0.00      0.000
12:33pm           261          6         10         37         39       73.5       55.1      29.42       53.7        469       6123        341       2.78       0.00       0.00      0.000
12:34pm           337          2         10         37         41       73.5       55.1      29.42       55.1        467       5815        339       2.73       0.00       0.00      0.000
12:35pm            18          4         10         37         41       73.5       55.0      29.42       54.6        464       5812        328       2.59       0.00       0.00      0.000
12:36pm           341          2          4         37         40       73.5       55.1      29.42       55.1        467       5967        339       2.64       0.00       0.00      0.000
12:37pm           339          3          5         37         42       73.5       55.1      29.42       55.1        469       5665        341       2.60       0.00       0.00      0.000
12:38pm           300          5          5         37         43       73.5       55.2      29.42       54.3        467       5521        346       2.65       0.00       0.00      0.000
12:39pm           207         13         13         37         42       73.5       55.3      29.42       51.9        467       5670        352       2.71       0.00       0.00      0.000
12:40pm           137          3         13         37         42       73.5       55.3      29.42       55.3        470       5670        356       2.66       0.00       0.00      0.000
12:41pm           289          5          5         37         41       73.5       55.2      29.42       54.3        467       5817        346       2.52       0.00       0.00      0.000
12:42pm            37          9          9         37         40       73.5       55.2      29.42       52.8        470       5970        349       2.48       0.00       0.00      0.000
12:43pm           349          3          9         37         39       73.5       55.0      29.42       55.0        470       6121        336       2.24       0.00       0.00      0.000
12:44pm           354          6          9         37         41       73.5       54.9      29.42       53.5        470       5810        329       2.10       0.00       0.00      0.000
12:45pm           288          4          9         37         42       73.5       55.0      29.41       54.6        471       5663        337       2.17       0.00       0.00      0.000
12:46pm           324          1          6         37         41       73.5       55.1      29.41       55.1        471       5815        344       2.23       0.00       0.00      0.000
12:47pm            52          7         10         37         42       73.5       55.1      29.41       53.3        471       5665        344       2.19       0.00       0.00      0.000
12:48pm           356          0         10         37         41       73.5       55.1      29.41       55.1        471       5815        344       2.16       0.00       0.00      0.000
12:49pm           274          3         10         37         41       73.5       55.2      29.41       55.2        471       5817        350       2.22       0.00       0.00      0.000
12:50pm           352          3         10         37         42       73.5       55.2      29.41       55.2        471       5668        350       2.19       0.00       0.00      0.000
12:51pm           258          8          8         37         42       73.5       55.3      29.41       53.2        473       5670        359       2.25       0.00       0.00      0.000
12:52pm           343          6          9         37         40       73.5       55.3      29.41       54.0        471       5972        357       2.21       0.00       0.00      0.000
12:53pm           243         11         11         37         41       73.5       55.3      29.41       52.3        471       5819        357       2.17       0.00       0.00      0.000
12:54pm           328          7         13         37         40       73.5       55.2      29.41       53.5        471       5970        350       2.04       0.00       0.00      0.000
12:55pm           347          8         13         37         41       73.5       55.3      29.42       53.2        470       5819        356       2.11       0.00       0.00      0.000
12:56pm           257          2         11         37         42       73.5       55.3      29.42       55.3        470       5670        356       2.07       0.00       0.00      0.000
12:57pm            27          8         11         37         41       73.5       55.3      29.42       53.2        470       5819        356       2.04       0.00       0.00      0.000
12:58pm           320          2         11         37         41       73.5       55.3      29.41       55.3        471       5819        357       2.00       0.00       0.00      0.000
12:59pm           353          2         11         37         43       73.5       55.4      29.41       55.4        471       5526        363       2.07       0.00       0.00      0.000
1:00pm            248          6         11         37         42       73.5       55.5      29.42       54.2        470       5675        369       2.14       0.00       0.00      0.000
1:01pm            191          3          6         37         40       73.5       55.6      29.41       55.6        471       5980        377       2.20       0.00       0.00      0.000
1:02pm            241          5          6         37         41       73.5       55.7      29.41       54.9        472       5829        384       2.26       0.00       0.00      0.000
1:03pm            332          4          6         37         44       73.5       55.9      29.41       55.7        471       5394        396       2.42       0.00       0.00      0.000
1:04pm             50          5          9         37         41       73.5       56.0      29.41       55.3        471       5837        403       2.48       0.00       0.00      0.000
1:05pm             43          9          9         37         42       73.5       56.0      29.41       53.8        472       5687        404       2.44       0.00       0.00      0.000
1:06pm             39          7         17         37         40       73.5       55.9      29.42       54.3        470       5988        395       2.30       0.00       0.00      0.000
1:07pm             85          3         17         37         40       73.5       55.8      29.42       55.8        470       5985        389       2.16       0.00       0.00      0.000
1:08pm            331          3         17         37         40       73.5       55.8      29.42       55.8        470       5985        389       2.13       0.00       0.00      0.000
1:09pm            356          3         17         37         42       73.5       55.9      29.41       55.9        471       5684        396       2.19       0.00       0.00      0.000
1:10pm             43          2         17         37         40       73.5       55.9      29.41       55.9        471       5988        396       2.16       0.00       0.00      0.000
1:11pm             71          5          5         37         40       73.5       55.9      29.41       55.1        471       5988        396       2.12       0.00       0.00      0.000
1:12pm            358          6          9         37         39       73.5       55.8      29.41       54.6        472       6141        391       1.99       0.00       0.00      0.000
1:13pm            266          4          9         37         41       73.5       55.7      29.41       55.5        472       5829        384       1.85       0.00       0.00      0.000
1:14pm            352          2          9         37         41       73.5       55.7      29.41       55.7        472       5829        384       1.82       0.00       0.00      0.000
1:15pm            256          5          9         37         42       73.5       55.7      29.41       54.9        471       5680        383       1.79       0.00       0.00      0.000
1:16pm            291          3          6         37         42       73.5       55.9      29.41       55.9        471       5684        396       1.96       0.00       0.00      0.000
1:17pm            256          5          7         37         40       73.5       55.9      29.41       55.1        472       5988        398       1.93       0.00       0.00      0.000
1:18pm            266          4         12         37         41       73.5       55.8      29.41       55.6        474       5832        393       1.80       0.00       0.00      0.000
1:19pm            324          4         12         37         41       73.5       55.9      29.41       55.7        471       5834        396       1.87       0.00       0.00      0.000
1:20pm            258          3         12         37         42       73.5       56.0      29.41       56.0        471       5687        403       1.94       0.00       0.00      0.000
1:21pm            329          4          6         37         43       73.5       56.2      29.41       56.0        472       5545        417       2.10       0.00       0.00      0.000
1:22pm            143          2          6         37         41       73.5       56.3      29.41       56.3        472       5844        424       2.17       0.00       0.00      0.000
1:23pm            143          1          6         37         43       73.5       56.5      29.41       56.5        473       5552        438       2.33       0.00       0.00      0.000
1:24pm             10          5          6         37         42       73.5       56.7      29.41       56.1        474       5704        453       2.49       0.00       0.00      0.000
1:25pm             40          3          7         37         42       73.5       56.9      29.41       56.9        477       5709        470       2.65       0.00       0.00      0.000
1:26pm              9          3          5         37         41       73.5       56.9      29.41       56.9        476       5859        468       2.61       0.00       0.00      0.000
1:27pm             12          7          8         37         40       73.5       57.0      29.41       55.6        476       6016        476       2.66       0.00       0.00      0.000
1:28pm            337          5          8         37         40       73.5       57.0      29.41       56.4        475       6016        474       2.62       0.00       0.00      0.000
1:29pm             73          3          8         37         42       73.5       56.9      29.41       56.9        473       5709        465       2.47       0.00       0.00      0.000
1:30pm            330          4          8         37         41       73.5       56.9      29.41       56.8        474       5859        466       2.43       0.00       0.00      0.000
1:31pm              4          4          5         37         40       73.5       57.0      29.41       57.0        476       6016        475       2.49       0.00       0.00      0.000
1:32pm             10          5          5         37         41       73.5       56.9      29.41       56.3        476       5859        468       2.35       0.00       0.00      0.000
1:33pm             32          6          7         37         40       73.5       56.8      29.41       55.8        476       6010        462       2.21       0.00       0.00      0.000
1:34pm             27          5          7         37         39       73.5       56.7      29.41       56.1        476       6165        456       2.08       0.00       0.00      0.000
1:35pm            285          4          7         37         40       73.5       56.5      29.41       56.4        478       6003        445       1.84       0.00       0.00      0.000
1:36pm            213          4          8         37         40       73.5       56.5      29.41       56.4        479       6003        446       1.81       0.00       0.00      0.000
1:37pm            104          5          8         37         42       73.5       56.5      29.41       55.9        476       5699        442       1.78       0.00       0.00      0.000
1:38pm             32          2          8         37         42       73.5       56.6      29.41       56.6        477       5701        451       1.85       0.00       0.00      0.000
1:39pm             32          2          8         37         42       73.5       56.7      29.41       56.7        479       5704        460       1.92       0.00       0.00      0.000
1:40pm            281          3          8         37         41       73.5       56.7      29.41       56.7        477       5854        457       1.89       0.00       0.00      0.000
1:41pm            222          6          8         37         40       73.5       56.7      29.40       55.6        480       6008        461       1.86       0.00       0.00      0.000
1:42pm            315          3          8         37         40       73.5       56.7      29.40       56.7        480       6008        461       1.83       0.00       0.00      0.000
1:43pm            333          3          8         39         43       73.5       56.8      29.41       56.8        478       5559        465       1.90       0.00       0.00      0.000
1:44pm             90          2          8         37         43       73.5       56.8      29.40       56.8        483       5559        471       1.87       0.00       0.00      0.000
1:45pm            234          4          8         37         44       73.5       57.0      29.40       57.0        483       5419        484       2.03       0.00       0.00      0.000
1:46pm            314          1          4         37         43       73.5       57.2      29.40       57.2        480       5568        494       2.20       0.00       0.00      0.000
1:47pm            310          3          5         37         42       73.5       57.4      29.40       57.4        480       5721        507       2.36       0.00       0.00      0.000
1:48pm            319          5          8         37         43       73.5       57.5      29.40       57.0        481       5576        515       2.42       0.00       0.00      0.000
1:49pm            336          5          8         37         39       73.5       57.6      29.40       57.1        482       6189        522       2.48       0.00       0.00      0.000
1:50pm            360          4          8         37         42       73.5       57.5      29.40       57.5        482       5723        516       2.34       0.00       0.00      0.000
1:51pm             81          1          6         37         40       73.5       57.5      29.40       57.5        482       6028        516       2.30       0.00       0.00      0.000
1:52pm            101          1          6         37         40       73.5       57.5      29.40       57.5        482       6028        516       2.26       0.00       0.00      0.000
1:53pm            101          2          6         37         42       73.5       57.6      29.40       57.6        483       5726        523       2.32       0.00       0.00      0.000
1:54pm            274          4          6         37         41       73.5       57.7      29.40       57.7        483       5879        530       2.38       0.00       0.00      0.000
1:55pm            300          4          6         37         39       73.5       57.8      29.40       57.8        484       6194        538       2.44       0.00       0.00      0.000
1:56pm            278          2          4         37         38       73.5       57.6      29.40       57.6        484       6350        525       2.21       0.00       0.00      0.000
1:57pm            220          6         10         37         38       73.5       57.4      29.40       56.5        484       6344        511       1.97       0.00       0.00      0.000
1:58pm            270          1         10         37         38       73.5       57.2      29.40       57.2        484       6339        498       1.74       0.00       0.00      0.000
1:59pm            239          4         10         37         39       73.5       57.0      29.40       57.0        483       6173        484       1.51       0.00       0.00      0.000
2:00pm            294          7         10         37         38       73.5       56.9      29.40       55.5        485       6331        480       1.39       0.00       0.00      0.000
2:01pm            252          4          7         37         39       73.5       56.8      29.40       56.7        485       6168        473       1.26       0.00       0.00      0.000
2:02pm            319          4          7         37         40       73.5       56.7      29.40       56.6        485       6008        466       1.15       0.00       0.00      0.000
2:03pm            316          7          8         37         40       73.5       56.7      29.40       55.3        485       6008        466       1.13       0.00       0.00      0.000
2:04pm            131          2          8         37         41       73.5       56.9      29.40       56.9        484       5859        478       1.31       0.00       0.00      0.000
2:05pm            176          2          8         37         43       73.5       57.0      29.40       57.0        485       5564        486       1.38       0.00       0.00      0.000
2:06pm            241          1          3         37         42       73.5       57.2      29.40       57.2        484       5716        498       1.56       0.00       0.00      0.000
2:07pm            347          5          8         37         40       73.5       57.5      29.40       57.0        484       6028        518       1.83       0.00       0.00      0.000
2:08pm            336          3          8         37         40       73.5       57.6      29.40       57.6        483       6031        523       1.90       0.00       0.00      0.000
2:09pm              3          4          8         37         40       73.5       57.7      29.40       57.7        485       6033        532       1.97       0.00       0.00      0.000
2:10pm            192          5          8         37         40       73.5       57.7      29.40       57.3        484       6033        531       1.93       0.00       0.00      0.000
2:11pm             65          7          7         37         40       73.5       57.8      29.40       56.6        482       6036        535       2.00       0.00       0.00      0.000

Data provided from:  Mark Hofmann's Bel Air, MD Weather Station